KB0UOA Weather Reports


Display with metric or nautical units.
time (UTC)temp
F
wind
direction
speed
MPH
gust
MPH
rain 1hr
in
rain 24hr
in
rain mn
in
humidity
%
barometer
mb
20260904203704 98 156 3.0 8.0 0.00 0.00 0.00 44 1014.8
20260904203604 98 165 3.0 10.0 0.00 0.00 0.00 44 1014.8
20260904203504 98 172 4.0 11.0 0.00 0.00 0.00 44 1014.8
20260904203304 97 181 4.0 11.0 0.00 0.00 0.00 45 1014.8
20260904203204 97 183 4.0 11.0 0.00 0.00 0.00 45 1014.8
20260904203104 97 183 4.0 11.0 0.00 0.00 0.00 45 1014.8
20260904203004 97 185 4.0 11.0 0.00 0.00 0.00 45 1014.8
20260904202904 97 187 5.0 11.0 0.00 0.00 0.00 46 1014.8
20260904202805 97 183 5.0 11.0 0.00 0.00 0.00 45 1014.8
20260904202704 97 177 4.0 11.0 0.00 0.00 0.00 44 1014.8
20260904202604 97 168 4.0 11.0 0.00 0.00 0.00 44 1014.8
20260904202504 98 161 4.0 11.0 0.00 0.00 0.00 44 1014.8
20260904202405 98 152 4.0 11.0 0.00 0.00 0.00 44 1014.8
20260904202306 97 146 4.0 8.0 0.00 0.00 0.00 44 1014.8
20260904202105 97 139 4.0 9.0 0.00 0.00 0.00 45 1014.8
20260904202005 97 132 4.0 9.0 0.00 0.00 0.00 45 1014.8
20260904201905 97 126 4.0 9.0 0.00 0.00 0.00 44 1014.8
20260904201805 97 129 4.0 9.0 0.00 0.00 0.00 44 1014.8
20260904201705 97 135 4.0 9.0 0.00 0.00 0.00 45 1014.9
20260904201605 97 144 4.0 11.0 0.00 0.00 0.00 45 1014.9
20260904201304 98 157 4.0 11.0 0.00 0.00 0.00 44 1014.9
20260904201204 98 165 4.0 11.0 0.00 0.00 0.00 44 1014.9
20260904201104 98 169 4.0 11.0 0.00 0.00 0.00 44 1014.9
20260904201004 98 169 4.0 11.0 0.00 0.00 0.00 45 1014.9
20260904200904 98 164 4.0 11.0 0.00 0.00 0.00 45 1014.9
20260904200804 98 158 4.0 11.0 0.00 0.00 0.00 45 1014.9
20260904200704 98 154 4.0 11.0 0.00 0.00 0.00 45 1014.9
20260904200604 97 144 4.0 9.0 0.00 0.00 0.00 44 1014.9
20260904200504 97 142 4.0 9.0 0.00 0.00 0.00 45 1014.9
20260904200404 97 138 3.0 9.0 0.00 0.00 0.00 46 1014.9
20260904200104 97 124 4.0 9.0 0.00 0.00 0.00 45 1014.9
20260904195904 97 125 3.0 8.0 0.00 0.00 0.00 44 1014.9
20260904195604 97 127 3.0 8.0 0.00 0.00 0.00 44 1014.9
20260904195504 97 127 3.0 8.0 0.00 0.00 0.00 45 1015.0
20260904195405 97 127 3.0 8.0 0.00 0.00 0.00 45 1015.0
20260904195306 97 127 3.0 8.0 0.00 0.00 0.00 45 1015.1
20260904195205 97 127 3.0 8.0 0.00 0.00 0.00 45 1015.0
20260904195105 97 128 3.0 8.0 0.00 0.00 0.00 45 1015.1
20260904195004 97 130 3.0 8.0 0.00 0.00 0.00 45 1015.1
20260904194905 97 130 3.0 8.0 0.00 0.00 0.00 45 1015.1
20260904194805 97 130 3.0 8.0 0.00 0.00 0.00 45 1015.2
20260904194705 97 131 3.0 8.0 0.00 0.00 0.00 46 1015.2
20260904194604 97 125 3.0 8.0 0.00 0.00 0.00 45 1015.2
20260904194505 97 124 3.0 8.0 0.00 0.00 0.00 46 1015.2
20260904194405 97 123 3.0 8.0 0.00 0.00 0.00 46 1015.2
20260904194205 97 129 3.0 8.0 0.00 0.00 0.00 46 1015.2
20260904194104 97 136 3.0 11.0 0.00 0.00 0.00 46 1015.2
20260904194004 97 141 3.0 11.0 0.00 0.00 0.00 46 1015.2
20260904193904 97 141 3.0 11.0 0.00 0.00 0.00 46 1015.1
20260904193804 97 153 3.0 11.0 0.00 0.00 0.00 47 1015.1
20260904193704 97 160 3.0 11.0 0.00 0.00 0.00 46 1015.2
20260904193604 97 169 4.0 11.0 0.00 0.00 0.00 47 1015.2
20260904193404 97 177 4.0 11.0 0.00 0.00 0.00 47 1015.2
20260904193304 96 175 4.0 11.0 0.00 0.00 0.00 47 1015.2
20260904193005 96 154 4.0 9.0 0.00 0.00 0.00 47 1015.3
20260904192905 96 157 4.0 9.0 0.00 0.00 0.00 47 1015.3
20260904192805 96 152 4.0 9.0 0.00 0.00 0.00 47 1015.3
20260904192504 96 132 4.0 7.0 0.00 0.00 0.00 47 1015.3
20260904192404 96 131 4.0 7.0 0.00 0.00 0.00 47 1015.3
20260904192204 96 143 4.0 10.0 0.00 0.00 0.00 46 1015.3
20260904192104 96 149 4.0 10.0 0.00 0.00 0.00 47 1015.3
20260904192004 96 153 4.0 10.0 0.00 0.00 0.00 48 1015.4
20260904191904 96 154 5.0 10.0 0.00 0.00 0.00 47 1015.4
20260904191804 96 162 5.0 11.0 0.00 0.00 0.00 47 1015.4
20260904191704 96 168 5.0 11.0 0.00 0.00 0.00 48 1015.3
20260904191604 96 173 5.0 11.0 0.00 0.00 0.00 48 1015.4
20260904191504 96 175 4.0 11.0 0.00 0.00 0.00 48 1015.3
20260904191304 96 182 4.0 11.0 0.00 0.00 0.00 48 1015.3
20260904191204 96 177 4.0 11.0 0.00 0.00 0.00 48 1015.3
20260904191104 96 174 4.0 11.0 0.00 0.00 0.00 47 1015.4
20260904191004 96 179 4.0 11.0 0.00 0.00 0.00 46 1015.3
20260904190804 96 175 4.0 11.0 0.00 0.00 0.00 47 1015.4
20260904190704 96 172 4.0 11.0 0.00 0.00 0.00 47 1015.4
20260904190604 96 166 4.0 11.0 0.00 0.00 0.00 47 1015.4
20260904190505 96 162 4.0 11.0 0.00 0.00 0.00 47 1015.4
20260904190405 96 161 4.0 11.0 0.00 0.00 0.00 47 1015.4
20260904190305 96 154 4.0 11.0 0.00 0.00 0.00 48 1015.5
20260904190205 96 152 4.0 11.0 0.00 0.00 0.00 47 1015.5
20260904190105 96 156 4.0 11.0 0.00 0.00 0.00 47 1015.4
20260904190004 96 147 4.0 10.0 0.00 0.00 0.00 48 1015.5
20260904185905 96 143 3.0 9.0 0.00 0.00 0.00 48 1015.4
20260904185705 96 130 4.0 7.0 0.00 0.00 0.00 48 1015.5
20260904185605 96 135 4.0 7.0 0.00 0.00 0.00 49 1015.5
20260904185505 96 134 4.0 7.0 0.00 0.00 0.00 48 1015.5
20260904185306 96 142 4.0 9.0 0.00 0.00 0.00 49 1015.6
20260904185205 95 149 4.0 10.0 0.00 0.00 0.00 49 1015.6
20260904185004 95 149 4.0 11.0 0.00 0.00 0.00 49 1015.5
20260904184904 95 153 5.0 12.0 0.00 0.00 0.00 48 1015.5
20260904184804 95 163 5.0 12.0 0.00 0.00 0.00 49 1015.6
20260904184704 95 171 5.0 12.0 0.00 0.00 0.00 49 1015.6
20260904184604 95 173 5.0 12.0 0.00 0.00 0.00 50 1015.6
20260904184504 95 177 5.0 12.0 0.00 0.00 0.00 50 1015.5
20260904184005 95 175 5.0 16.0 0.00 0.00 0.00 50 1015.7
20260904183905 95 170 5.0 16.0 0.00 0.00 0.00 49 1015.6
20260904183805 95 162 4.0 16.0 0.00 0.00 0.00 50 1015.6
20260904183604 95 150 4.0 16.0 0.00 0.00 0.00 49 1015.6
20260904183504 95 147 4.0 16.0 0.00 0.00 0.00 49 1015.6
20260904183404 95 145 4.0 16.0 0.00 0.00 0.00 49 1015.6
20260904183204 95 142 4.0 11.0 0.00 0.00 0.00 49 1015.7
20260904182904 96 143 3.0 11.0 0.00 0.00 0.00 49 1015.7
20260904182804 96 145 3.0 11.0 0.00 0.00 0.00 50 1015.7
20260904182704 96 144 3.0 11.0 0.00 0.00 0.00 50 1015.8
20260904182604 96 143 3.0 8.0 0.00 0.00 0.00 50 1015.7
20260904182504 95 141 3.0 8.0 0.00 0.00 0.00 51 1015.7
20260904182404 95 146 3.0 8.0 0.00 0.00 0.00 51 1015.8
20260904182306 95 142 3.0 9.0 0.00 0.00 0.00 52 1015.7
20260904182104 94 147 3.0 9.0 0.00 0.00 0.00 51 1015.7
20260904181904 94 139 3.0 9.0 0.00 0.00 0.00 51 1015.8
20260904181804 94 137 3.0 9.0 0.00 0.00 0.00 51 1015.8
20260904181704 94 138 3.0 9.0 0.00 0.00 0.00 51 1015.8
20260904181504 94 140 4.0 9.0 0.00 0.00 0.00 52 1015.8
20260904181405 94 145 4.0 11.0 0.00 0.00 0.00 53 1015.9
20260904181304 94 141 4.0 11.0 0.00 0.00 0.00 52 1015.9
20260904181204 94 142 4.0 11.0 0.00 0.00 0.00 52 1015.9
20260904181104 94 142 4.0 11.0 0.00 0.00 0.00 52 1015.9
20260904181004 94 143 4.0 11.0 0.00 0.00 0.00 51 1015.9
20260904180904 94 143 4.0 11.0 0.00 0.00 0.00 51 1016.0
20260904180704 94 146 4.0 11.0 0.00 0.00 0.00 53 1016.0
20260904180604 93 144 4.0 11.0 0.00 0.00 0.00 53 1016.0
20260904180504 93 144 4.0 11.0 0.00 0.00 0.00 53 1016.0
20260904180404 93 144 4.0 9.0 0.00 0.00 0.00 53 1016.0
20260904180304 93 155 4.0 9.0 0.00 0.00 0.00 54 1016.0
20260904180204 93 163 5.0 10.0 0.00 0.00 0.00 54 1016.1
20260904180104 93 166 5.0 11.0 0.00 0.00 0.00 53 1016.0
20260904180004 93 171 5.0 11.0 0.00 0.00 0.00 53 1016.1
20260904175904 93 177 5.0 11.0 0.00 0.00 0.00 54 1016.1
20260904175804 93 175 5.0 11.0 0.00 0.00 0.00 53 1016.0
20260904175704 93 176 5.0 11.0 0.00 0.00 0.00 54 1016.1
20260904175604 93 181 5.0 11.0 0.00 0.00 0.00 54 1016.1
20260904175504 93 178 4.0 11.0 0.00 0.00 0.00 53 1016.1
20260904175404 93 173 4.0 11.0 0.00 0.00 0.00 53 1016.2
20260904175305 93 166 4.0 11.0 0.00 0.00 0.00 52 1016.2
20260904175204 93 154 3.0 11.0 0.00 0.00 0.00 53 1016.1
20260904175104 94 145 3.0 10.0 0.00 0.00 0.00 53 1016.1
20260904175004 93 143 3.0 9.0 0.00 0.00 0.00 53 1016.2
20260904174904 93 147 3.0 9.0 0.00 0.00 0.00 53 1016.2
20260904174804 93 156 4.0 9.0 0.00 0.00 0.00 53 1016.2
20260904174704 93 159 4.0 9.0 0.00 0.00 0.00 53 1016.1
20260904174604 93 157 4.0 9.0 0.00 0.00 0.00 53 1016.2
20260904174404 93 155 4.0 9.0 0.00 0.00 0.00 54 1016.2
20260904174304 93 155 4.0 9.0 0.00 0.00 0.00 54 1016.2
20260904174204 93 156 4.0 9.0 0.00 0.00 0.00 54 1016.2
20260904174104 93 152 4.0 9.0 0.00 0.00 0.00 54 1016.2
20260904174004 93 149 3.0 9.0 0.00 0.00 0.00 54 1016.2
20260904173904 93 143 3.0 9.0 0.00 0.00 0.00 54 1016.2
20260904173804 93 140 3.0 7.0 0.00 0.00 0.00 53 1016.3
20260904173704 93 140 3.0 6.0 0.00 0.00 0.00 53 1016.3
20260904173604 93 145 3.0 6.0 0.00 0.00 0.00 53 1016.3
20260904173504 93 148 3.0 9.0 0.00 0.00 0.00 54 1016.3
20260904173404 93 153 3.0 9.0 0.00 0.00 0.00 54 1016.3
20260904173304 93 156 3.0 10.0 0.00 0.00 0.00 55 1016.3
20260904173204 93 155 3.0 10.0 0.00 0.00 0.00 55 1016.3
20260904173104 93 158 3.0 10.0 0.00 0.00 0.00 55 1016.3
20260904173004 92 161 4.0 10.0 0.00 0.00 0.00 55 1016.4
20260904172904 92 162 4.0 10.0 0.00 0.00 0.00 55 1016.4
20260904172604 92 157 4.0 10.0 0.00 0.00 0.00 55 1016.4
20260904172504 92 155 4.0 10.0 0.00 0.00 0.00 55 1016.5
20260904172404 92 152 3.0 10.0 0.00 0.00 0.00 55 1016.5
20260904172305 92 148 3.0 9.0 0.00 0.00 0.00 55 1016.4
20260904172204 92 152 3.0 9.0 0.00 0.00 0.00 55 1016.5
20260904172104 92 153 3.0 9.0 0.00 0.00 0.00 55 1016.5
20260904172004 92 150 3.0 9.0 0.00 0.00 0.00 55 1016.5
20260904171904 92 144 3.0 9.0 0.00 0.00 0.00 54 1016.5
20260904171804 92 145 3.0 9.0 0.00 0.00 0.00 55 1016.5
20260904171704 92 154 3.0 9.0 0.00 0.00 0.00 55 1016.5
20260904171604 92 154 4.0 10.0 0.00 0.00 0.00 56 1016.5
20260904171404 92 164 4.0 14.0 0.00 0.00 0.00 57 1016.5
20260904171304 91 164 4.0 14.0 0.00 0.00 0.00 57 1016.5
20260904171204 91 165 4.0 14.0 0.00 0.00 0.00 58 1016.4
20260904171104 91 168 5.0 14.0 0.00 0.00 0.00 57 1016.5
20260904170804 90 177 5.0 14.0 0.00 0.00 0.00 58 1016.5
20260904170704 90 177 5.0 14.0 0.00 0.00 0.00 57 1016.5
20260904170604 91 175 5.0 14.0 0.00 0.00 0.00 57 1016.5
20260904170504 90 169 5.0 11.0 0.00 0.00 0.00 58 1016.5
20260904170404 90 166 5.0 11.0 0.00 0.00 0.00 58 1016.5
20260904170304 90 166 5.0 11.0 0.00 0.00 0.00 57 1016.5
20260904170204 90 163 4.0 11.0 0.00 0.00 0.00 57 1016.6
20260904170104 91 160 4.0 11.0 0.00 0.00 0.00 56 1016.5
20260904170004 91 160 4.0 11.0 0.00 0.00 0.00 58 1016.6
20260904165904 91 164 4.0 12.0 0.00 0.00 0.00 57 1016.6
20260904165804 91 165 4.0 12.0 0.00 0.00 0.00 57 1016.7
20260904165704 91 163 4.0 12.0 0.00 0.00 0.00 57 1016.6
20260904165504 91 170 4.0 12.0 0.00 0.00 0.00 58 1016.7
20260904165305 90 185 4.0 12.0 0.00 0.00 0.00 58 1016.7
20260904165104 90 187 4.0 12.0 0.00 0.00 0.00 57 1016.6
20260904165004 90 188 4.0 12.0 0.00 0.00 0.00 58 1016.7
20260904164904 90 179 4.0 10.0 0.00 0.00 0.00 58 1016.7
20260904164804 90 181 4.0 10.0 0.00 0.00 0.00 59 1016.6
20260904164704 90 177 4.0 10.0 0.00 0.00 0.00 59 1016.6
20260904164604 90 177 4.0 10.0 0.00 0.00 0.00 58 1016.6
20260904164504 90 175 4.0 10.0 0.00 0.00 0.00 58 1016.6
20260904164304 90 168 4.0 11.0 0.00 0.00 0.00 59 1016.6
20260904164204 90 169 4.0 11.0 0.00 0.00 0.00 59 1016.7
20260904163904 89 161 5.0 13.0 0.00 0.00 0.00 59 1016.6
20260904163804 89 154 5.0 13.0 0.00 0.00 0.00 59 1016.6
20260904163604 89 148 4.0 13.0 0.00 0.00 0.00 59 1016.7
20260904163504 89 148 4.0 13.0 0.00 0.00 0.00 59 1016.7
20260904163404 89 150 4.0 13.0 0.00 0.00 0.00 59 1016.6
20260904163304 89 150 4.0 13.0 0.00 0.00 0.00 59 1016.5
20260904163204 89 149 4.0 13.0 0.00 0.00 0.00 60 1016.6
20260904163104 89 146 4.0 10.0 0.00 0.00 0.00 59 1016.6
20260904163004 89 154 4.0 10.0 0.00 0.00 0.00 59 1016.6
20260904162904 89 154 4.0 10.0 0.00 0.00 0.00 59 1016.7
20260904162804 89 155 3.0 10.0 0.00 0.00 0.00 59 1016.6
20260904162704 89 156 3.0 10.0 0.00 0.00 0.00 60 1016.7
20260904162604 89 157 3.0 10.0 0.00 0.00 0.00 60 1016.6
20260904162404 89 157 3.0 10.0 0.00 0.00 0.00 60 1016.7
20260904162205 89 152 3.0 8.0 0.00 0.00 0.00 61 1016.7
20260904162104 89 157 3.0 8.0 0.00 0.00 0.00 61 1016.7
20260904162004 88 155 4.0 8.0 0.00 0.00 0.00 60 1016.7
20260904161904 88 162 4.0 11.0 0.00 0.00 0.00 61 1016.7
20260904161705 88 167 4.0 11.0 0.00 0.00 0.00 62 1016.7
20260904161605 88 164 4.0 11.0 0.00 0.00 0.00 62 1016.7
20260904161505 88 161 4.0 11.0 0.00 0.00 0.00 62 1016.6
20260904161405 88 162 4.0 11.0 0.00 0.00 0.00 61 1016.6
20260904161305 88 160 4.0 11.0 0.00 0.00 0.00 62 1016.6
20260904161104 88 161 4.0 11.0 0.00 0.00 0.00 61 1016.6
20260904161004 88 154 4.0 11.0 0.00 0.00 0.00 61 1016.5
20260904160904 88 149 3.0 11.0 0.00 0.00 0.00 62 1016.7
20260904160804 88 142 3.0 10.0 0.00 0.00 0.00 62 1016.6
20260904160704 88 147 3.0 10.0 0.00 0.00 0.00 62 1016.6
20260904160604 88 151 3.0 10.0 0.00 0.00 0.00 61 1016.6
20260904160504 88 153 3.0 10.0 0.00 0.00 0.00 62 1016.6
20260904160304 87 161 4.0 10.0 0.00 0.00 0.00 62 1016.6
20260904160204 87 164 4.0 10.0 0.00 0.00 0.00 62 1016.6
20260904160104 87 164 4.0 10.0 0.00 0.00 0.00 62 1016.6
20260904155904 87 172 4.0 11.0 0.00 0.00 0.00 63 1016.6
20260904155804 87 175 4.0 11.0 0.00 0.00 0.00 63 1016.6
20260904155704 86 176 4.0 11.0 0.00 0.00 0.00 64 1016.6
20260904155604 86 176 4.0 11.0 0.00 0.00 0.00 64 1016.6
20260904155504 86 174 4.0 11.0 0.00 0.00 0.00 63 1016.6
20260904155404 86 170 4.0 11.0 0.00 0.00 0.00 63 1016.6
20260904155306 87 163 4.0 11.0 0.00 0.00 0.00 63 1016.6
20260904155204 87 157 4.0 11.0 0.00 0.00 0.00 64 1016.6
20260904155104 86 155 4.0 11.0 0.00 0.00 0.00 64 1016.6
20260904155004 86 151 4.0 9.0 0.00 0.00 0.00 64 1016.6
20260904154904 86 150 4.0 9.0 0.00 0.00 0.00 64 1016.6
20260904154804 86 151 4.0 9.0 0.00 0.00 0.00 63 1016.6
20260904154704 86 150 4.0 8.0 0.00 0.00 0.00 63 1016.6
20260904154604 86 146 4.0 8.0 0.00 0.00 0.00 64 1016.5
20260904154504 86 148 4.0 9.0 0.00 0.00 0.00 63 1016.5
20260904154404 86 151 4.0 9.0 0.00 0.00 0.00 64 1016.6
20260904154304 86 152 4.0 9.0 0.00 0.00 0.00 64 1016.6
20260904154204 86 154 4.0 9.0 0.00 0.00 0.00 64 1016.6
20260904154104 86 158 3.0 9.0 0.00 0.00 0.00 64 1016.5
20260904154004 86 157 3.0 9.0 0.00 0.00 0.00 64 1016.6
20260904153904 86 157 3.0 9.0 0.00 0.00 0.00 64 1016.6
20260904153804 86 153 3.0 9.0 0.00 0.00 0.00 64 1016.6
20260904153704 86 154 3.0 9.0 0.00 0.00 0.00 65 1016.6
20260904153604 86 159 4.0 9.0 0.00 0.00 0.00 65 1016.6
20260904153504 86 155 4.0 9.0 0.00 0.00 0.00 65 1016.6
20260904153404 86 154 4.0 9.0 0.00 0.00 0.00 65 1016.6
20260904153304 86 152 4.0 9.0 0.00 0.00 0.00 65 1016.6
20260904153204 85 149 4.0 9.0 0.00 0.00 0.00 65 1016.7
20260904153104 85 148 4.0 9.0 0.00 0.00 0.00 65 1016.6
20260904152904 85 155 5.0 9.0 0.00 0.00 0.00 66 1016.6
20260904152804 85 160 4.0 9.0 0.00 0.00 0.00 66 1016.6
20260904152704 85 158 4.0 9.0 0.00 0.00 0.00 66 1016.6
20260904152604 85 154 4.0 9.0 0.00 0.00 0.00 66 1016.6
20260904152504 85 154 4.0 9.0 0.00 0.00 0.00 66 1016.6
20260904152404 85 155 4.0 9.0 0.00 0.00 0.00 66 1016.6
20260904152306 84 160 4.0 9.0 0.00 0.00 0.00 66 1016.6
20260904152204 84 164 4.0 9.0 0.00 0.00 0.00 66 1016.6
20260904152004 84 157 4.0 9.0 0.00 0.00 0.00 66 1016.6
20260904151904 85 154 4.0 9.0 0.00 0.00 0.00 66 1016.7
20260904151804 85 147 3.0 8.0 0.00 0.00 0.00 66 1016.7
20260904151604 84 146 4.0 8.0 0.00 0.00 0.00 67 1016.7
20260904151504 84 150 4.0 12.0 0.00 0.00 0.00 67 1016.8
20260904151405 84 152 4.0 12.0 0.00 0.00 0.00 67 1016.7
20260904151304 84 152 3.0 12.0 0.00 0.00 0.00 67 1016.7
20260904151204 84 146 3.0 12.0 0.00 0.00 0.00 67 1016.7
20260904151004 84 149 3.0 12.0 0.00 0.00 0.00 68 1016.7
20260904150904 84 147 3.0 12.0 0.00 0.00 0.00 68 1016.7
20260904150704 84 147 3.0 12.0 0.00 0.00 0.00 67 1016.6
20260904150604 84 153 3.0 12.0 0.00 0.00 0.00 68 1016.7
20260904150504 84 151 3.0 11.0 0.00 0.00 0.00 68 1016.8
20260904150404 84 156 3.0 11.0 0.00 0.00 0.00 68 1016.8
20260904150304 84 156 3.0 11.0 0.00 0.00 0.00 68 1016.8
20260904150204 84 160 3.0 11.0 0.00 0.00 0.00 68 1016.8
20260904150104 84 163 3.0 11.0 0.00 0.00 0.00 68 1016.8
20260904150004 84 166 3.0 11.0 0.00 0.00 0.00 69 1016.7
20260904145904 83 168 3.0 11.0 0.00 0.00 0.00 69 1016.7
20260904145704 83 166 3.0 11.0 0.00 0.00 0.00 69 1016.6
20260904145604 83 164 3.0 11.0 0.00 0.00 0.00 70 1016.8
20260904145504 83 166 3.0 11.0 0.00 0.00 0.00 69 1016.7
20260904145405 83 162 3.0 8.0 0.00 0.00 0.00 69 1016.8
20260904145306 83 155 2.0 6.0 0.00 0.00 0.00 69 1016.8
20260904145205 83 150 3.0 6.0 0.00 0.00 0.00 70 1016.8
20260904145005 83 157 3.0 11.0 0.00 0.00 0.00 70 1016.7
20260904144904 83 164 3.0 11.0 0.00 0.00 0.00 70 1016.8
20260904144704 82 167 4.0 11.0 0.00 0.00 0.00 71 1016.8
20260904144604 82 167 4.0 11.0 0.00 0.00 0.00 71 1016.8
20260904144504 82 165 4.0 11.0 0.00 0.00 0.00 71 1016.8
20260904144404 82 166 4.0 11.0 0.00 0.00 0.00 71 1016.7
20260904144304 82 167 4.0 11.0 0.00 0.00 0.00 71 1016.7
20260904144204 82 165 4.0 11.0 0.00 0.00 0.00 70 1016.7
20260904144104 82 162 4.0 11.0 0.00 0.00 0.00 70 1016.7
20260904144004 82 161 4.0 9.0 0.00 0.00 0.00 71 1016.8
20260904143904 82 154 4.0 9.0 0.00 0.00 0.00 71 1016.7
20260904143804 82 150 4.0 9.0 0.00 0.00 0.00 71 1016.7
20260904143704 82 150 4.0 9.0 0.00 0.00 0.00 71 1016.8
20260904143604 82 151 4.0 9.0 0.00 0.00 0.00 71 1016.7
20260904143504 82 153 4.0 9.0 0.00 0.00 0.00 70 1016.8
20260904143404 82 155 4.0 10.0 0.00 0.00 0.00 70 1016.8
20260904143305 82 153 4.0 10.0 0.00 0.00 0.00 70 1016.8
20260904143204 82 158 4.0 10.0 0.00 0.00 0.00 71 1016.7
20260904143105 82 160 3.0 10.0 0.00 0.00 0.00 71 1016.7
20260904142804 82 160 3.0 10.0 0.00 0.00 0.00 72 1016.8
20260904142704 82 166 3.0 10.0 0.00 0.00 0.00 72 1016.7
20260904142604 82 166 3.0 10.0 0.00 0.00 0.00 72 1016.8
20260904142504 82 162 3.0 10.0 0.00 0.00 0.00 72 1016.8
20260904142404 82 152 3.0 7.0 0.00 0.00 0.00 72 1016.7
20260904142306 82 152 3.0 7.0 0.00 0.00 0.00 72 1016.7
20260904142204 82 151 2.0 7.0 0.00 0.00 0.00 73 1016.8
20260904142104 82 148 3.0 7.0 0.00 0.00 0.00 74 1016.8
20260904142004 81 151 2.0 7.0 0.00 0.00 0.00 73 1016.8
20260904141904 81 153 3.0 7.0 0.00 0.00 0.00 73 1016.8
20260904141804 81 158 3.0 7.0 0.00 0.00 0.00 74 1016.9
20260904141704 81 153 2.0 7.0 0.00 0.00 0.00 74 1016.8
20260904141604 81 152 2.0 7.0 0.00 0.00 0.00 74 1016.8
20260904141504 81 158 3.0 7.0 0.00 0.00 0.00 74 1016.8
20260904141404 81 165 3.0 7.0 0.00 0.00 0.00 75 1016.8
20260904141304 80 163 3.0 7.0 0.00 0.00 0.00 75 1016.8
20260904141204 80 162 3.0 7.0 0.00 0.00 0.00 75 1016.7
20260904141104 80 166 3.0 7.0 0.00 0.00 0.00 75 1016.7
20260904141004 80 164 3.0 7.0 0.00 0.00 0.00 75 1016.7
20260904140904 80 162 3.0 7.0 0.00 0.00 0.00 75 1016.7
20260904140804 80 155 3.0 7.0 0.00 0.00 0.00 76 1016.7
20260904140704 80 156 3.0 7.0 0.00 0.00 0.00 76 1016.7
20260904140604 80 159 3.0 8.0 0.00 0.00 0.00 76 1016.7
20260904140504 80 159 3.0 8.0 0.00 0.00 0.00 76 1016.7
20260904140404 80 152 3.0 8.0 0.00 0.00 0.00 76 1016.7
20260904140304 80 153 3.0 8.0 0.00 0.00 0.00 77 1016.9
20260904140204 80 153 3.0 8.0 0.00 0.00 0.00 76 1016.8
20260904140104 79 149 3.0 8.0 0.00 0.00 0.00 77 1016.8
20260904140004 79 148 3.0 8.0 0.00 0.00 0.00 77 1016.8
20260904135904 79 147 3.0 8.0 0.00 0.00 0.00 77 1016.8
20260904135804 79 151 2.0 8.0 0.00 0.00 0.00 77 1016.8
20260904135604 79 143 2.0 6.0 0.00 0.00 0.00 77 1016.8
20260904135504 79 145 2.0 6.0 0.00 0.00 0.00 78 1016.8
20260904135404 79 147 2.0 5.0 0.00 0.00 0.00 78 1016.8
20260904135306 79 150 2.0 5.0 0.00 0.00 0.00 78 1016.8
20260904135204 79 151 2.0 5.0 0.00 0.00 0.00 78 1016.7
20260904135104 79 150 2.0 5.0 0.00 0.00 0.00 78 1016.8
20260904135004 78 152 2.0 5.0 0.00 0.00 0.00 79 1016.7
20260904134904 78 159 3.0 7.0 0.00 0.00 0.00 79 1016.7
20260904134804 78 163 3.0 8.0 0.00 0.00 0.00 79 1016.7
20260904134704 78 161 2.0 8.0 0.00 0.00 0.00 79 1016.6
20260904134604 78 162 2.0 8.0 0.00 0.00 0.00 79 1016.7
20260904134504 78 160 2.0 8.0 0.00 0.00 0.00 79 1016.7
20260904134404 78 161 2.0 8.0 0.00 0.00 0.00 79 1016.7
20260904134304 78 159 2.0 8.0 0.00 0.00 0.00 80 1016.7
20260904134204 78 155 2.0 8.0 0.00 0.00 0.00 80 1016.7
20260904134104 78 154 2.0 8.0 0.00 0.00 0.00 79 1016.7
20260904134004 78 154 2.0 8.0 0.00 0.00 0.00 79 1016.7
20260904133904 78 150 2.0 8.0 0.00 0.00 0.00 79 1016.7
20260904133804 78 143 2.0 8.0 0.00 0.00 0.00 79 1016.6
20260904133704 78 148 2.0 8.0 0.00 0.00 0.00 80 1016.6
20260904133604 78 151 2.0 8.0 0.00 0.00 0.00 80 1016.6
20260904133504 78 154 2.0 8.0 0.00 0.00 0.00 80 1016.7
20260904133304 78 148 2.0 8.0 0.00 0.00 0.00 80 1016.7
20260904133204 77 154 2.0 8.0 0.00 0.00 0.00 81 1016.6
20260904132904 77 160 2.0 8.0 0.00 0.00 0.00 81 1016.7
20260904132804 77 160 2.0 8.0 0.00 0.00 0.00 81 1016.7
20260904132704 77 161 2.0 8.0 0.00 0.00 0.00 81 1016.6
20260904132604 77 159 2.0 8.0 0.00 0.00 0.00 81 1016.7
20260904132404 77 159 2.0 8.0 0.00 0.00 0.00 81 1016.6
20260904132306 77 162 2.0 8.0 0.00 0.00 0.00 81 1016.6
20260904132204 77 158 2.0 5.0 0.00 0.00 0.00 81 1016.6
20260904132104 77 149 2.0 5.0 0.00 0.00 0.00 81 1016.6
20260904132004 77 151 2.0 5.0 0.00 0.00 0.00 81 1016.6
20260904131904 77 152 2.0 5.0 0.00 0.00 0.00 81 1016.6
20260904131804 77 152 2.0 5.0 0.00 0.00 0.00 81 1016.5
20260904131704 77 148 2.0 5.0 0.00 0.00 0.00 81 1016.5
20260904131604 77 145 2.0 5.0 0.00 0.00 0.00 81 1016.5
20260904131504 77 142 2.0 5.0 0.00 0.00 0.00 81 1016.5
20260904131305 77 136 2.0 5.0 0.00 0.00 0.00 82 1016.5
20260904131205 77 136 2.0 5.0 0.00 0.00 0.00 81 1016.5
20260904131105 77 137 2.0 5.0 0.00 0.00 0.00 82 1016.5
20260904131005 77 132 2.0 5.0 0.00 0.00 0.00 82 1016.4
20260904130905 77 130 2.0 5.0 0.00 0.00 0.00 82 1016.4
20260904130804 76 130 2.0 5.0 0.00 0.00 0.00 82 1016.4
20260904130704 76 130 2.0 5.0 0.00 0.00 0.00 82 1016.4
20260904130504 76 135 2.0 5.0 0.00 0.00 0.00 82 1016.4
20260904130404 76 134 2.0 5.0 0.00 0.00 0.00 82 1016.4
20260904130304 76 137 2.0 5.0 0.00 0.00 0.00 82 1016.4
20260904130204 76 140 2.0 5.0 0.00 0.00 0.00 82 1016.4
20260904130104 76 142 2.0 4.0 0.00 0.00 0.00 82 1016.4
20260904130004 76 145 1.0 4.0 0.00 0.00 0.00 83 1016.4
20260904125904 76 147 1.0 3.0 0.00 0.00 0.00 83 1016.4
20260904125704 76 152 1.0 4.0 0.00 0.00 0.00 83 1016.4
20260904125604 76 149 1.0 4.0 0.00 0.00 0.00 83 1016.4
20260904125504 76 149 1.0 4.0 0.00 0.00 0.00 83 1016.4
20260904125404 76 153 1.0 4.0 0.00 0.00 0.00 83 1016.4
20260904125305 76 155 1.0 4.0 0.00 0.00 0.00 83 1016.4
20260904125204 76 153 1.0 4.0 0.00 0.00 0.00 84 1016.4
20260904125004 75 151 1.0 4.0 0.00 0.00 0.00 84 1016.4
20260904124904 75 152 1.0 4.0 0.00 0.00 0.00 84 1016.4
20260904124804 75 155 1.0 4.0 0.00 0.00 0.00 84 1016.4
20260904124704 75 150 1.0 3.0 0.00 0.00 0.00 85 1016.3
20260904124605 75 151 1.0 3.0 0.00 0.00 0.00 85 1016.4
20260904124505 75 155 1.0 4.0 0.00 0.00 0.00 85 1016.3
20260904124405 75 153 1.0 4.0 0.00 0.00 0.00 85 1016.3
20260904124305 75 152 1.0 4.0 0.00 0.00 0.00 85 1016.3
20260904124204 75 148 1.0 4.0 0.00 0.00 0.00 85 1016.2
20260904124005 75 146 1.0 4.0 0.00 0.00 0.00 85 1016.2
20260904123905 75 136 1.0 4.0 0.00 0.00 0.00 85 1016.2
20260904123805 75 135 1.0 4.0 0.00 0.00 0.00 85 1016.2
20260904123604 75 137 1.0 4.0 0.00 0.00 0.00 85 1016.1
20260904123504 75 131 1.0 4.0 0.00 0.00 0.00 85 1016.2
20260904123404 75 132 1.0 4.0 0.00 0.00 0.00 85 1016.1
20260904123304 75 132 1.0 4.0 0.00 0.00 0.00 85 1016.1
20260904123204 75 133 1.0 4.0 0.00 0.00 0.00 85 1016.0
20260904123104 75 135 1.0 4.0 0.00 0.00 0.00 85 1016.0
20260904123004 75 137 1.0 5.0 0.00 0.00 0.00 85 1016.0
20260904122904 74 140 1.0 5.0 0.00 0.00 0.00 85 1016.0
20260904122604 74 139 1.0 5.0 0.00 0.00 0.00 85 1015.9
20260904122404 74 136 1.0 5.0 0.00 0.00 0.00 85 1015.9
20260904122004 74 135 1.0 5.0 0.00 0.00 0.00 85 1015.9
20260904121904 74 135 1.0 5.0 0.00 0.00 0.00 85 1015.9
20260904121804 74 138 1.0 5.0 0.00 0.00 0.00 85 1015.9
20260904121704 74 138 1.0 5.0 0.00 0.00 0.00 84 1015.8
20260904121604 74 141 1.0 5.0 0.00 0.00 0.00 84 1015.9
20260904121504 74 142 1.0 5.0 0.00 0.00 0.00 84 1015.9
20260904121404 74 144 1.0 5.0 0.00 0.00 0.00 84 1015.9
20260904121204 74 146 1.0 5.0 0.00 0.00 0.00 84 1015.8
20260904121104 75 144 1.0 5.0 0.00 0.00 0.00 84 1015.8
20260904121004 74 144 1.0 4.0 0.00 0.00 0.00 84 1015.8
20260904120904 75 144 1.0 4.0 0.00 0.00 0.00 84 1015.8
20260904120804 75 140 1.0 3.0 0.00 0.00 0.00 84 1015.9
20260904120704 75 140 1.0 3.0 0.00 0.00 0.00 84 1015.8
20260904120504 75 141 1.0 4.0 0.00 0.00 0.00 84 1015.8
20260904120404 75 141 1.0 4.0 0.00 0.00 0.00 84 1015.8
20260904120304 75 144 1.0 4.0 0.00 0.00 0.00 84 1015.8
20260904120204 75 141 1.0 4.0 0.00 0.00 0.00 84 1015.8
20260904120104 75 142 1.0 4.0 0.00 0.00 0.00 84 1015.8
20260904120004 75 141 1.0 4.0 0.00 0.00 0.00 84 1015.8
20260904115604 75 139 1.0 4.0 0.00 0.00 0.00 84 1015.8
20260904115404 75 137 1.0 4.0 0.00 0.00 0.00 84 1015.9
20260904115204 75 134 1.0 4.0 0.00 0.00 0.00 84 1015.9
20260904115105 75 137 1.0 4.0 0.00 0.00 0.00 84 1015.8
20260904115004 75 143 1.0 5.0 0.00 0.00 0.00 84 1015.8
20260904114905 75 143 1.0 5.0 0.00 0.00 0.00 84 1015.8
20260904114704 75 147 1.0 5.0 0.00 0.00 0.00 84 1015.8
20260904114604 75 147 1.0 5.0 0.00 0.00 0.00 84 1015.8
20260904114504 75 148 1.0 5.0 0.00 0.00 0.00 84 1015.9
20260904114404 75 148 1.0 5.0 0.00 0.00 0.00 84 1015.8
20260904114304 75 152 1.0 6.0 0.00 0.00 0.00 84 1015.8
20260904114204 75 154 1.0 6.0 0.00 0.00 0.00 84 1015.7
20260904114104 75 150 1.0 6.0 0.00 0.00 0.00 84 1015.8
20260904114004 75 144 1.0 6.0 0.00 0.00 0.00 84 1015.8
20260904113904 75 147 1.0 6.0 0.00 0.00 0.00 84 1015.8
20260904113704 75 147 1.0 6.0 0.00 0.00 0.00 84 1015.8
20260904113604 75 148 1.0 7.0 0.00 0.00 0.00 84 1015.8
20260904113404 75 144 1.0 7.0 0.00 0.00 0.00 84 1015.8
20260904113204 75 139 1.0 7.0 0.00 0.00 0.00 83 1015.8
20260904113004 75 145 1.0 7.0 0.00 0.00 0.00 83 1015.8
20260904112904 75 139 1.0 7.0 0.00 0.00 0.00 83 1015.7
20260904112804 75 137 1.0 7.0 0.00 0.00 0.00 83 1015.7
20260904112704 75 137 1.0 7.0 0.00 0.00 0.00 83 1015.7
20260904112504 75 135 1.0 5.0 0.00 0.00 0.00 83 1015.7
20260904112404 75 134 1.0 5.0 0.00 0.00 0.00 83 1015.8
20260904112306 75 134 1.0 5.0 0.00 0.00 0.00 83 1015.8
20260904112204 75 134 1.0 5.0 0.00 0.00 0.00 83 1015.8
20260904112104 75 134 1.0 5.0 0.00 0.00 0.00 83 1015.8
20260904112004 75 123 1.0 4.0 0.00 0.00 0.00 83 1015.8
20260904111904 75 128 1.0 2.0 0.00 0.00 0.00 83 1015.8
20260904111804 75 127 1.0 2.0 0.00 0.00 0.00 83 1015.8
20260904111704 75 127 1.0 2.0 0.00 0.00 0.00 83 1015.8
20260904111505 75 128 1.0 2.0 0.00 0.00 0.00 83 1015.8
20260904111304 75 129 1.0 2.0 0.00 0.00 0.00 83 1015.8
20260904111204 75 129 1.0 2.0 0.00 0.00 0.00 83 1015.8
20260904111104 75 131 1.0 2.0 0.00 0.00 0.00 83 1015.8
20260904111004 75 133 1.0 2.0 0.00 0.00 0.00 83 1015.8
20260904110904 75 135 1.0 4.0 0.00 0.00 0.00 83 1015.8
20260904110704 75 131 1.0 4.0 0.00 0.00 0.00 83 1015.8
20260904110604 75 131 1.0 4.0 0.00 0.00 0.00 83 1015.8
20260904110504 75 131 1.0 4.0 0.00 0.00 0.00 83 1015.8
20260904110304 75 131 1.0 4.0 0.00 0.00 0.00 82 1015.7
20260904110204 75 131 1.0 4.0 0.00 0.00 0.00 82 1015.8
20260904110005 75 131 1.0 4.0 0.00 0.00 0.00 82 1015.7
20260904105904 75 132 1.0 3.0 0.00 0.00 0.00 82 1015.8
20260904105804 75 137 1.0 3.0 0.00 0.00 0.00 82 1015.8
20260904105704 75 138 1.0 3.0 0.00 0.00 0.00 82 1015.7
20260904105404 75 141 0.0 3.0 0.00 0.00 0.00 82 1015.8
20260904105306 75 138 0.0 3.0 0.00 0.00 0.00 82 1015.8
20260904105204 75 138 0.0 3.0 0.00 0.00 0.00 82 1015.8
20260904105104 75 145 0.0 4.0 0.00 0.00 0.00 82 1015.8
20260904105004 75 145 0.0 4.0 0.00 0.00 0.00 82 1015.8
20260904104904 75 144 0.0 4.0 0.00 0.00 0.00 82 1015.8
20260904104704 76 142 0.0 4.0 0.00 0.00 0.00 82 1015.8
20260904104604 76 143 1.0 4.0 0.00 0.00 0.00 82 1015.8
20260904104504 76 145 1.0 4.0 0.00 0.00 0.00 82 1015.8
20260904104305 76 151 0.0 4.0 0.00 0.00 0.00 82 1015.8
20260904104005 76 150 0.0 3.0 0.00 0.00 0.00 81 1015.8
20260904103905 76 159 0.0 4.0 0.00 0.00 0.00 81 1015.9
20260904103804 76 159 0.0 4.0 0.00 0.00 0.00 81 1015.8
20260904103704 76 163 0.0 4.0 0.00 0.00 0.00 81 1015.8
20260904103504 76 161 1.0 4.0 0.00 0.00 0.00 81 1015.9
20260904103404 76 163 1.0 4.0 0.00 0.00 0.00 81 1015.8
20260904103304 76 159 1.0 4.0 0.00 0.00 0.00 81 1015.8
20260904103104 76 153 1.0 4.0 0.00 0.00 0.00 81 1015.8
20260904103004 76 154 1.0 4.0 0.00 0.00 0.00 81 1015.8
20260904102904 76 148 1.0 4.0 0.00 0.00 0.00 81 1015.8
20260904102804 76 148 1.0 4.0 0.00 0.00 0.00 81 1015.8
20260904102704 76 146 1.0 4.0 0.00 0.00 0.00 81 1015.8
20260904102604 76 146 1.0 4.0 0.00 0.00 0.00 81 1015.9
20260904102404 76 144 1.0 4.0 0.00 0.00 0.00 81 1015.9
20260904102306 76 143 1.0 4.0 0.00 0.00 0.00 81 1015.8
20260904102204 76 143 1.0 4.0 0.00 0.00 0.00 81 1015.9
20260904102104 76 146 1.0 4.0 0.00 0.00 0.00 81 1015.8
20260904102004 76 143 1.0 4.0 0.00 0.00 0.00 81 1015.8
20260904101804 76 146 1.0 4.0 0.00 0.00 0.00 80 1015.8
20260904101605 76 147 1.0 4.0 0.00 0.00 0.00 80 1015.8
20260904101505 76 146 1.0 4.0 0.00 0.00 0.00 80 1015.9
20260904101405 76 145 1.0 4.0 0.00 0.00 0.00 80 1015.9
20260904101205 76 145 1.0 4.0 0.00 0.00 0.00 80 1015.8
20260904100904 76 148 1.0 5.0 0.00 0.00 0.00 80 1015.8
20260904100804 76 149 1.0 5.0 0.00 0.00 0.00 80 1015.8
20260904100704 76 149 1.0 5.0 0.00 0.00 0.00 80 1015.8
20260904100604 76 146 1.0 5.0 0.00 0.00 0.00 80 1015.8
20260904100504 76 148 1.0 5.0 0.00 0.00 0.00 80 1015.8
20260904100404 76 149 1.0 5.0 0.00 0.00 0.00 80 1015.8
20260904100204 76 151 1.0 5.0 0.00 0.00 0.00 80 1015.8
20260904100104 76 150 1.0 5.0 0.00 0.00 0.00 80 1015.8
20260904095904 76 145 1.0 3.0 0.00 0.00 0.00 79 1015.9
20260904095704 76 141 1.0 2.0 0.00 0.00 0.00 79 1015.9
20260904095604 76 144 1.0 2.0 0.00 0.00 0.00 79 1015.8
20260904095504 76 145 1.0 3.0 0.00 0.00 0.00 79 1015.9
20260904095404 77 145 1.0 4.0 0.00 0.00 0.00 79 1015.8
20260904095306 77 146 1.0 4.0 0.00 0.00 0.00 79 1015.8
20260904095204 77 146 1.0 5.0 0.00 0.00 0.00 79 1015.8
20260904095105 77 146 1.0 5.0 0.00 0.00 0.00 79 1015.8
20260904094705 77 156 1.0 5.0 0.00 0.00 0.00 79 1015.7
20260904094605 77 156 1.0 5.0 0.00 0.00 0.00 79 1015.6
20260904094505 77 155 1.0 5.0 0.00 0.00 0.00 79 1015.6
20260904094405 77 156 1.0 5.0 0.00 0.00 0.00 79 1015.6
20260904094305 77 155 1.0 5.0 0.00 0.00 0.00 79 1015.6
20260904093904 77 158 1.0 5.0 0.00 0.00 0.00 78 1015.7
20260904093804 77 148 1.0 3.0 0.00 0.00 0.00 78 1015.7
20260904093604 77 157 1.0 4.0 0.00 0.00 0.00 78 1015.6
20260904093504 77 161 1.0 5.0 0.00 0.00 0.00 78 1015.6
20260904093404 77 159 2.0 5.0 0.00 0.00 0.00 78 1015.6
20260904093304 77 165 2.0 8.0 0.00 0.00 0.00 78 1015.6
20260904093204 77 164 2.0 8.0 0.00 0.00 0.00 78 1015.6
20260904093104 77 164 2.0 8.0 0.00 0.00 0.00 78 1015.6
20260904093004 77 162 2.0 8.0 0.00 0.00 0.00 78 1015.6
20260904092904 77 161 2.0 8.0 0.00 0.00 0.00 78 1015.5
20260904092804 77 161 2.0 8.0 0.00 0.00 0.00 78 1015.5
20260904092705 77 161 2.0 8.0 0.00 0.00 0.00 78 1015.5
20260904092605 77 156 2.0 8.0 0.00 0.00 0.00 78 1015.5
20260904092505 77 152 2.0 8.0 0.00 0.00 0.00 78 1015.5
20260904092405 77 152 2.0 8.0 0.00 0.00 0.00 78 1015.5
20260904092306 77 145 2.0 5.0 0.00 0.00 0.00 77 1015.5
20260904092205 77 147 2.0 5.0 0.00 0.00 0.00 77 1015.5
20260904092105 78 146 2.0 4.0 0.00 0.00 0.00 77 1015.5
20260904092005 78 149 1.0 4.0 0.00 0.00 0.00 77 1015.5
20260904091905 78 148 2.0 4.0 0.00 0.00 0.00 77 1015.5
20260904091805 78 150 2.0 4.0 0.00 0.00 0.00 77 1015.5
20260904091705 78 154 1.0 4.0 0.00 0.00 0.00 77 1015.5
20260904091605 78 151 1.0 4.0 0.00 0.00 0.00 77 1015.4
20260904091505 78 151 2.0 4.0 0.00 0.00 0.00 77 1015.5
20260904091405 78 157 2.0 8.0 0.00 0.00 0.00 77 1015.5
20260904091304 78 156 2.0 8.0 0.00 0.00 0.00 77 1015.5
20260904091204 78 158 2.0 8.0 0.00 0.00 0.00 77 1015.5
20260904091104 78 156 2.0 8.0 0.00 0.00 0.00 77 1015.5
20260904090804 78 157 2.0 8.0 0.00 0.00 0.00 77 1015.4
20260904090704 78 153 2.0 8.0 0.00 0.00 0.00 77 1015.4
20260904090604 78 155 2.0 8.0 0.00 0.00 0.00 77 1015.4
20260904090504 78 156 2.0 8.0 0.00 0.00 0.00 76 1015.4
20260904090404 78 155 2.0 7.0 0.00 0.00 0.00 76 1015.4
20260904090204 78 151 2.0 7.0 0.00 0.00 0.00 76 1015.4
20260904090104 78 151 2.0 7.0 0.00 0.00 0.00 76 1015.4
20260904090004 78 149 2.0 7.0 0.00 0.00 0.00 76 1015.4
20260904085904 78 151 2.0 5.0 0.00 0.00 0.00 76 1015.4
20260904085804 78 151 2.0 5.0 0.00 0.00 0.00 76 1015.4
20260904085704 78 151 2.0 5.0 0.00 0.00 0.00 76 1015.4
20260904085604 78 155 2.0 7.0 0.00 0.00 0.00 76 1015.4
20260904085504 78 154 2.0 7.0 0.00 0.00 0.00 76 1015.4
20260904085405 78 151 2.0 7.0 0.00 0.00 0.00 76 1015.5
20260904085306 78 156 2.0 7.0 0.00 0.00 0.00 76 1015.5
20260904085104 78 157 2.0 7.0 0.00 0.00 0.00 76 1015.5
20260904084904 78 160 2.0 7.0 0.00 0.00 0.00 76 1015.4
20260904084804 78 158 3.0 7.0 0.00 0.00 0.00 76 1015.5
20260904084704 78 167 3.0 8.0 0.00 0.00 0.00 76 1015.5
20260904084604 78 163 3.0 8.0 0.00 0.00 0.00 75 1015.5
20260904084404 78 162 3.0 8.0 0.00 0.00 0.00 75 1015.5
20260904084304 78 158 3.0 8.0 0.00 0.00 0.00 75 1015.6
20260904084104 78 160 3.0 8.0 0.00 0.00 0.00 75 1015.5
20260904084005 79 159 2.0 8.0 0.00 0.00 0.00 75 1015.5
20260904083904 78 154 2.0 8.0 0.00 0.00 0.00 75 1015.5
20260904083804 78 156 2.0 8.0 0.00 0.00 0.00 75 1015.5
20260904083704 79 147 2.0 6.0 0.00 0.00 0.00 75 1015.5
20260904083604 79 158 2.0 6.0 0.00 0.00 0.00 75 1015.5
20260904083504 79 159 3.0 8.0 0.00 0.00 0.00 75 1015.5
20260904083404 79 162 3.0 8.0 0.00 0.00 0.00 75 1015.5
20260904083304 79 162 3.0 8.0 0.00 0.00 0.00 75 1015.5
20260904083204 79 162 2.0 8.0 0.00 0.00 0.00 75 1015.5
20260904083004 79 164 3.0 8.0 0.00 0.00 0.00 75 1015.5
20260904082904 79 166 3.0 9.0 0.00 0.00 0.00 75 1015.5
20260904082804 79 166 3.0 9.0 0.00 0.00 0.00 75 1015.5
20260904082704 79 164 3.0 9.0 0.00 0.00 0.00 75 1015.5
20260904082604 79 158 3.0 9.0 0.00 0.00 0.00 75 1015.6
20260904082504 79 156 3.0 9.0 0.00 0.00 0.00 75 1015.5
20260904082404 79 155 2.0 9.0 0.00 0.00 0.00 75 1015.5
20260904082306 79 156 2.0 9.0 0.00 0.00 0.00 74 1015.5
20260904082104 79 154 3.0 9.0 0.00 0.00 0.00 74 1015.4
20260904082004 79 152 3.0 9.0 0.00 0.00 0.00 74 1015.4
20260904081904 79 149 3.0 9.0 0.00 0.00 0.00 74 1015.4
20260904081804 79 148 3.0 9.0 0.00 0.00 0.00 74 1015.4
20260904081704 79 146 3.0 9.0 0.00 0.00 0.00 74 1015.5
20260904081604 79 145 2.0 6.0 0.00 0.00 0.00 74 1015.4
20260904081504 79 146 2.0 6.0 0.00 0.00 0.00 74 1015.5
20260904081404 79 145 2.0 6.0 0.00 0.00 0.00 74 1015.4
20260904081304 79 144 2.0 6.0 0.00 0.00 0.00 74 1015.4
20260904081204 79 142 2.0 6.0 0.00 0.00 0.00 74 1015.3
20260904081104 79 142 2.0 6.0 0.00 0.00 0.00 74 1015.4
20260904081004 79 150 3.0 7.0 0.00 0.00 0.00 74 1015.4
20260904080904 79 155 3.0 7.0 0.00 0.00 0.00 74 1015.4
20260904080804 79 157 3.0 8.0 0.00 0.00 0.00 74 1015.4
20260904080705 79 161 3.0 8.0 0.00 0.00 0.00 74 1015.4
20260904080604 79 160 3.0 8.0 0.00 0.00 0.00 74 1015.4
20260904080505 79 158 3.0 8.0 0.00 0.00 0.00 74 1015.4
20260904080405 79 159 3.0 8.0 0.00 0.00 0.00 73 1015.4
20260904080305 79 162 3.0 8.0 0.00 0.00 0.00 73 1015.3
20260904080105 79 164 3.0 8.0 0.00 0.00 0.00 73 1015.4
20260904080005 79 158 3.0 8.0 0.00 0.00 0.00 73 1015.4
20260904075905 79 153 2.0 8.0 0.00 0.00 0.00 73 1015.5
20260904075705 80 147 2.0 7.0 0.00 0.00 0.00 73 1015.4
20260904075605 80 151 2.0 7.0 0.00 0.00 0.00 73 1015.4
20260904075504 80 150 3.0 7.0 0.00 0.00 0.00 73 1015.4
20260904075404 80 150 3.0 7.0 0.00 0.00 0.00 73 1015.5
20260904075306 80 151 3.0 8.0 0.00 0.00 0.00 73 1015.5
20260904075204 80 149 3.0 8.0 0.00 0.00 0.00 73 1015.5
20260904075004 80 154 3.0 8.0 0.00 0.00 0.00 73 1015.5
20260904074904 80 154 3.0 9.0 0.00 0.00 0.00 73 1015.4
20260904074804 80 154 3.0 9.0 0.00 0.00 0.00 73 1015.5
20260904074704 80 155 3.0 9.0 0.00 0.00 0.00 72 1015.5
20260904074604 80 153 3.0 9.0 0.00 0.00 0.00 72 1015.5
20260904074504 80 155 3.0 9.0 0.00 0.00 0.00 72 1015.5
20260904074404 80 158 3.0 9.0 0.00 0.00 0.00 72 1015.5
20260904074304 80 156 3.0 9.0 0.00 0.00 0.00 72 1015.5
20260904074204 80 157 3.0 9.0 0.00 0.00 0.00 72 1015.5
20260904074104 80 156 3.0 9.0 0.00 0.00 0.00 72 1015.6
20260904074004 80 156 2.0 9.0 0.00 0.00 0.00 72 1015.5
20260904073904 80 156 2.0 6.0 0.00 0.00 0.00 72 1015.6
20260904073804 80 156 3.0 6.0 0.00 0.00 0.00 72 1015.6
20260904073704 80 159 3.0 8.0 0.00 0.00 0.00 72 1015.6
20260904073604 80 160 3.0 8.0 0.00 0.00 0.00 72 1015.6
20260904073504 80 160 3.0 8.0 0.00 0.00 0.00 72 1015.6
20260904073404 80 156 3.0 8.0 0.00 0.00 0.00 72 1015.5
20260904073304 80 155 3.0 8.0 0.00 0.00 0.00 72 1015.5
20260904073204 80 156 3.0 8.0 0.00 0.00 0.00 72 1015.5
20260904073104 80 155 3.0 8.0 0.00 0.00 0.00 72 1015.6
20260904072904 80 159 3.0 10.0 0.00 0.00 0.00 71 1015.6
20260904072804 80 158 3.0 10.0 0.00 0.00 0.00 71 1015.6
20260904072704 80 154 3.0 10.0 0.00 0.00 0.00 71 1015.5
20260904072504 80 157 3.0 10.0 0.00 0.00 0.00 71 1015.6
20260904072404 80 158 3.0 10.0 0.00 0.00 0.00 71 1015.6
20260904072204 80 154 3.0 10.0 0.00 0.00 0.00 71 1015.6
20260904072104 80 154 3.0 10.0 0.00 0.00 0.00 71 1015.6
20260904072004 80 150 3.0 10.0 0.00 0.00 0.00 71 1015.6
20260904071904 80 146 3.0 8.0 0.00 0.00 0.00 71 1015.5
20260904071804 80 145 2.0 8.0 0.00 0.00 0.00 71 1015.6
20260904071705 80 145 2.0 8.0 0.00 0.00 0.00 71 1015.5
20260904071605 80 138 2.0 7.0 0.00 0.00 0.00 71 1015.5
20260904071304 81 140 2.0 7.0 0.00 0.00 0.00 71 1015.4
20260904071204 81 142 3.0 7.0 0.00 0.00 0.00 71 1015.4
20260904071004 81 145 3.0 8.0 0.00 0.00 0.00 71 1015.5
20260904070904 81 150 3.0 8.0 0.00 0.00 0.00 71 1015.5
20260904070804 81 153 3.0 8.0 0.00 0.00 0.00 71 1015.5
20260904070704 81 155 3.0 8.0 0.00 0.00 0.00 71 1015.5
20260904070604 81 157 3.0 8.0 0.00 0.00 0.00 71 1015.6
20260904070504 81 156 3.0 8.0 0.00 0.00 0.00 70 1015.6
20260904070404 81 157 3.0 8.0 0.00 0.00 0.00 70 1015.6
20260904070204 81 157 3.0 8.0 0.00 0.00 0.00 70 1015.6
20260904070104 81 157 3.0 7.0 0.00 0.00 0.00 70 1015.6
20260904070004 81 155 3.0 7.0 0.00 0.00 0.00 70 1015.7
20260904065905 81 155 3.0 7.0 0.00 0.00 0.00 70 1015.7
20260904065804 81 153 3.0 7.0 0.00 0.00 0.00 70 1015.6
20260904065705 81 152 3.0 7.0 0.00 0.00 0.00 70 1015.6
20260904065505 81 153 3.0 11.0 0.00 0.00 0.00 70 1015.6
20260904065404 81 155 3.0 11.0 0.00 0.00 0.00 70 1015.6
20260904065306 81 156 3.0 11.0 0.00 0.00 0.00 70 1015.6
20260904065004 81 152 3.0 11.0 0.00 0.00 0.00 70 1015.5
20260904064904 81 152 3.0 11.0 0.00 0.00 0.00 70 1015.5
20260904064804 81 153 3.0 11.0 0.00 0.00 0.00 70 1015.5
20260904064704 81 153 3.0 11.0 0.00 0.00 0.00 70 1015.4
20260904064604 81 152 3.0 11.0 0.00 0.00 0.00 70 1015.4
20260904064504 81 147 3.0 9.0 0.00 0.00 0.00 69 1015.5
20260904064304 82 143 3.0 9.0 0.00 0.00 0.00 69 1015.5
20260904064204 82 146 3.0 10.0 0.00 0.00 0.00 69 1015.4
20260904064005 82 149 3.0 10.0 0.00 0.00 0.00 69 1015.4
20260904063905 82 153 4.0 14.0 0.00 0.00 0.00 69 1015.4
20260904063805 82 150 4.0 14.0 0.00 0.00 0.00 69 1015.5
20260904063705 82 151 4.0 14.0 0.00 0.00 0.00 69 1015.5
20260904063605 82 155 4.0 14.0 0.00 0.00 0.00 69 1015.5
20260904063505 82 157 4.0 14.0 0.00 0.00 0.00 69 1015.5
20260904063405 82 161 4.0 14.0 0.00 0.00 0.00 69 1015.5
20260904063305 82 166 4.0 14.0 0.00 0.00 0.00 69 1015.5
20260904063104 82 168 4.0 14.0 0.00 0.00 0.00 69 1015.4
20260904063004 82 169 4.0 14.0 0.00 0.00 0.00 69 1015.6
20260904062904 82 166 4.0 12.0 0.00 0.00 0.00 69 1015.5
20260904062804 82 167 4.0 12.0 0.00 0.00 0.00 69 1015.5
20260904062704 82 167 4.0 11.0 0.00 0.00 0.00 69 1015.6
20260904062604 82 165 3.0 11.0 0.00 0.00 0.00 69 1015.5
20260904062504 82 165 3.0 11.0 0.00 0.00 0.00 69 1015.6
20260904062404 82 164 3.0 9.0 0.00 0.00 0.00 69 1015.6
20260904062306 82 159 3.0 7.0 0.00 0.00 0.00 69 1015.6
20260904062204 82 161 3.0 7.0 0.00 0.00 0.00 69 1015.5
20260904062004 82 150 3.0 7.0 0.00 0.00 0.00 68 1015.6
20260904061904 82 149 3.0 7.0 0.00 0.00 0.00 68 1015.6
20260904061804 82 152 3.0 7.0 0.00 0.00 0.00 68 1015.5
20260904061704 82 149 3.0 7.0 0.00 0.00 0.00 68 1015.6
20260904061605 82 150 3.0 7.0 0.00 0.00 0.00 68 1015.5
20260904061505 82 147 3.0 7.0 0.00 0.00 0.00 68 1015.6
20260904061305 82 144 3.0 10.0 0.00 0.00 0.00 68 1015.6
20260904061205 82 144 3.0 10.0 0.00 0.00 0.00 68 1015.5
20260904061105 82 150 3.0 10.0 0.00 0.00 0.00 68 1015.6
20260904060905 82 155 3.0 10.0 0.00 0.00 0.00 68 1015.5
20260904060805 82 153 3.0 10.0 0.00 0.00 0.00 68 1015.6
20260904060604 82 156 3.0 10.0 0.00 0.00 0.00 68 1015.5
20260904060504 82 158 3.0 10.0 0.00 0.00 0.00 68 1015.5
20260904060404 82 159 3.0 9.0 0.00 0.00 0.00 68 1015.6
20260904060304 82 160 3.0 9.0 0.00 0.00 0.00 68 1015.5
20260904060204 82 160 3.0 9.0 0.00 0.00 0.00 68 1015.5
20260904060104 82 159 4.0 9.0 0.00 0.00 0.00 68 1015.5
20260904060004 82 158 4.0 9.0 0.00 0.00 0.00 68 1015.5
20260904055804 82 157 4.0 10.0 0.00 0.00 0.00 68 1015.5
20260904055704 82 158 3.0 10.0 0.00 0.00 0.00 68 1015.5
20260904055604 82 156 3.0 10.0 0.00 0.00 0.00 68 1015.5
20260904055504 82 155 3.0 10.0 0.00 0.00 0.00 68 1015.5
20260904055306 82 153 3.0 10.0 0.00 0.00 0.00 67 1015.4
20260904055204 82 153 3.0 10.0 0.00 0.00 0.00 67 1015.5
20260904055104 82 150 3.0 10.0 0.00 0.00 0.00 67 1015.4
20260904055004 82 150 3.0 10.0 0.00 0.00 0.00 67 1015.4
20260904054904 83 148 3.0 8.0 0.00 0.00 0.00 67 1015.4
20260904054804 82 148 3.0 8.0 0.00 0.00 0.00 67 1015.4
20260904054704 83 148 3.0 8.0 0.00 0.00 0.00 67 1015.4
20260904054604 83 151 3.0 8.0 0.00 0.00 0.00 67 1015.4
20260904054504 83 149 3.0 8.0 0.00 0.00 0.00 67 1015.4
20260904054404 83 152 3.0 8.0 0.00 0.00 0.00 67 1015.4
20260904054304 83 152 3.0 8.0 0.00 0.00 0.00 67 1015.3
20260904054104 83 151 3.0 8.0 0.00 0.00 0.00 67 1015.3
20260904054004 83 149 3.0 6.0 0.00 0.00 0.00 67 1015.3
20260904053904 83 149 3.0 8.0 0.00 0.00 0.00 67 1015.3
20260904053804 83 149 3.0 8.0 0.00 0.00 0.00 67 1015.3
20260904053704 83 148 3.0 8.0 0.00 0.00 0.00 67 1015.3
20260904053604 83 148 3.0 8.0 0.00 0.00 0.00 67 1015.3
20260904053504 83 150 3.0 8.0 0.00 0.00 0.00 66 1015.2
20260904053404 83 147 3.0 8.0 0.00 0.00 0.00 66 1015.3
20260904053304 83 149 4.0 9.0 0.00 0.00 0.00 66 1015.3
20260904053204 83 148 3.0 9.0 0.00 0.00 0.00 66 1015.2
20260904053104 83 149 3.0 9.0 0.00 0.00 0.00 66 1015.3
20260904053004 83 150 3.0 9.0 0.00 0.00 0.00 66 1015.2
20260904052804 83 148 3.0 9.0 0.00 0.00 0.00 66 1015.1
20260904052704 83 151 3.0 9.0 0.00 0.00 0.00 66 1015.2
20260904052604 83 148 3.0 9.0 0.00 0.00 0.00 66 1015.1
20260904052504 83 150 3.0 9.0 0.00 0.00 0.00 66 1015.1
20260904052307 83 152 3.0 9.0 0.00 0.00 0.00 66 1015.1
20260904052104 83 153 3.0 9.0 0.00 0.00 0.00 66 1015.2
20260904052004 83 155 3.0 9.0 0.00 0.00 0.00 66 1015.2
20260904051904 83 155 3.0 9.0 0.00 0.00 0.00 66 1015.2
20260904051804 83 157 3.0 9.0 0.00 0.00 0.00 66 1015.2
20260904051704 83 156 3.0 9.0 0.00 0.00 0.00 66 1015.1
20260904051604 83 158 3.0 9.0 0.00 0.00 0.00 66 1015.1
20260904051504 83 155 3.0 9.0 0.00 0.00 0.00 66 1015.1
20260904051404 83 157 3.0 9.0 0.00 0.00 0.00 66 1015.1
20260904051304 83 156 3.0 8.0 0.00 0.00 0.00 66 1015.1
20260904051204 83 154 3.0 8.0 0.00 0.00 0.00 66 1015.1
20260904051104 83 152 3.0 8.0 0.00 0.00 0.00 66 1015.1
20260904051004 83 151 3.0 8.0 0.00 0.00 0.00 66 1015.1
20260904050904 83 151 3.0 8.0 0.00 0.00 0.00 66 1015.1
20260904050804 83 155 3.0 8.0 0.00 0.00 0.00 66 1015.1
20260904050704 83 153 3.0 8.0 0.00 0.00 0.00 65 1015.1
20260904050604 83 152 3.0 8.0 0.00 0.00 0.00 66 1015.0
20260904050504 83 151 3.0 8.0 0.00 0.00 0.00 66 1015.0
20260904050404 83 149 3.0 8.0 0.00 0.00 0.00 66 1015.0
20260904050304 83 148 3.0 8.0 0.00 0.00 0.00 65 1015.1
20260904050204 83 149 3.0 8.0 0.00 0.00 0.00 65 1015.0
20260904050104 83 151 3.0 8.0 0.00 0.00 0.00 66 1015.0
20260904050006 83 149 3.0 8.0 0.00 0.00 0.00 66 1015.0
20260904045904 83 150 2.0 8.0 0.00 0.00 0.00 65 1015.0
20260904045804 83 143 2.0 7.0 0.00 0.00 0.00 66 1015.0
20260904045704 83 145 2.0 7.0 0.00 0.00 0.00 65 1015.0
20260904045504 83 148 2.0 7.0 0.00 0.00 0.00 66 1015.0
20260904045405 83 151 2.0 7.0 0.00 0.00 0.00 66 1015.0
20260904045307 83 148 2.0 7.0 0.00 0.00 0.00 66 1015.0
20260904045205 83 147 2.0 7.0 0.00 0.00 0.00 66 1015.0
20260904045105 83 147 2.0 7.0 0.00 0.00 0.00 66 1015.0
20260904045005 84 149 2.0 7.0 0.00 0.00 0.00 66 1015.0
20260904044904 84 149 2.0 6.0 0.00 0.00 0.00 66 1015.0
20260904044804 84 148 2.0 6.0 0.00 0.00 0.00 66 1015.0
20260904044704 84 145 2.0 6.0 0.00 0.00 0.00 66 1015.0
20260904044604 84 142 2.0 5.0 0.00 0.00 0.00 65 1015.0
20260904044504 84 141 2.0 5.0 0.00 0.00 0.00 65 1015.0
20260904044404 84 138 2.0 5.0 0.00 0.00 0.00 65 1015.0
20260904044304 84 140 2.0 6.0 0.00 0.00 0.00 65 1015.0
20260904044204 84 143 2.0 6.0 0.00 0.00 0.00 65 1015.0
20260904044105 84 142 2.0 6.0 0.00 0.00 0.00 65 1015.0
20260904043904 84 140 2.0 6.0 0.00 0.00 0.00 65 1015.0
20260904043804 84 143 2.0 6.0 0.00 0.00 0.00 65 1015.0
20260904043704 84 144 2.0 6.0 0.00 0.00 0.00 65 1015.0
20260904043604 84 144 2.0 6.0 0.00 0.00 0.00 65 1015.0
20260904043504 84 144 2.0 6.0 0.00 0.00 0.00 65 1014.9
20260904043404 84 143 2.0 6.0 0.00 0.00 0.00 65 1014.9
20260904043304 84 145 3.0 7.0 0.00 0.00 0.00 65 1014.9
20260904043204 84 143 3.0 7.0 0.00 0.00 0.00 65 1014.9
20260904043104 84 144 3.0 7.0 0.00 0.00 0.00 65 1014.9
20260904042904 84 147 3.0 12.0 0.00 0.00 0.00 65 1014.9
20260904042805 84 145 3.0 12.0 0.00 0.00 0.00 65 1014.9
20260904042705 84 145 3.0 12.0 0.00 0.00 0.00 65 1014.9
20260904042605 84 143 3.0 12.0 0.00 0.00 0.00 65 1015.0
20260904042505 84 147 3.0 12.0 0.00 0.00 0.00 65 1014.9
20260904042405 84 148 3.0 12.0 0.00 0.00 0.00 65 1014.9
20260904042306 84 144 3.0 12.0 0.00 0.00 0.00 65 1014.9
20260904042205 84 144 3.0 12.0 0.00 0.00 0.00 65 1014.9
20260904042105 84 143 3.0 12.0 0.00 0.00 0.00 65 1014.9
20260904042005 84 140 3.0 12.0 0.00 0.00 0.00 65 1014.9
20260904041805 84 140 3.0 8.0 0.00 0.00 0.00 65 1014.9
20260904041705 84 139 2.0 8.0 0.00 0.00 0.00 65 1014.9
20260904041605 84 140 2.0 8.0 0.00 0.00 0.00 65 1014.9
20260904041504 84 136 2.0 8.0 0.00 0.00 0.00 64 1014.9
20260904041404 84 135 2.0 8.0 0.00 0.00 0.00 64 1014.9
20260904041305 84 138 2.0 7.0 0.00 0.00 0.00 64 1014.8
20260904041205 84 138 2.0 7.0 0.00 0.00 0.00 64 1014.8
20260904041104 84 137 2.0 7.0 0.00 0.00 0.00 64 1014.8
20260904041004 84 136 2.0 7.0 0.00 0.00 0.00 64 1014.9
20260904040904 84 137 2.0 7.0 0.00 0.00 0.00 64 1014.8
20260904040804 84 136 2.0 7.0 0.00 0.00 0.00 64 1014.8
20260904040704 84 137 3.0 7.0 0.00 0.00 0.00 64 1014.8
20260904040604 84 137 2.0 7.0 0.00 0.00 0.00 64 1014.8
20260904040504 84 137 2.0 7.0 0.00 0.00 0.00 64 1014.8
20260904040404 85 137 2.0 7.0 0.00 0.00 0.00 64 1014.7
20260904040204 85 134 2.0 6.0 0.00 0.00 0.00 64 1014.8
20260904040105 85 133 2.0 6.0 0.00 0.00 0.00 64 1014.8
20260904040005 85 135 2.0 6.0 0.00 0.00 0.00 64 1014.9
20260904035904 85 134 2.0 6.0 0.00 0.00 0.00 64 1014.9
20260904035804 85 135 2.0 6.0 0.00 0.00 0.00 64 1014.8
20260904035704 85 134 2.0 6.0 0.00 0.00 0.00 64 1014.8
20260904035604 85 135 2.0 6.0 0.00 0.00 0.00 63 1014.9
20260904035504 85 134 3.0 7.0 0.00 0.00 0.00 63 1014.9
20260904035404 85 134 3.0 7.0 0.00 0.00 0.00 63 1014.9
20260904035306 85 134 3.0 7.0 0.00 0.00 0.00 63 1014.8
20260904035204 85 133 3.0 7.0 0.00 0.00 0.00 63 1014.8
20260904035104 85 134 3.0 7.0 0.00 0.00 0.00 63 1014.8
20260904035004 85 136 3.0 7.0 0.00 0.00 0.00 63 1014.8
20260904034904 85 135 3.0 7.0 0.00 0.00 0.00 63 1014.8
20260904034804 85 134 3.0 7.0 0.00 0.00 0.00 63 1014.7
20260904034704 85 135 3.0 7.0 0.00 0.00 0.00 63 1014.8
20260904034604 85 134 3.0 7.0 0.00 0.00 0.00 63 1014.8
20260904034504 85 134 3.0 6.0 0.00 0.00 0.00 63 1014.8
20260904034404 85 135 3.0 6.0 0.00 0.00 0.00 63 1014.8
20260904034304 85 135 3.0 6.0 0.00 0.00 0.00 63 1014.8
20260904034204 85 138 3.0 6.0 0.00 0.00 0.00 63 1014.8
20260904034104 85 140 3.0 8.0 0.00 0.00 0.00 63 1014.8
20260904034004 85 137 3.0 8.0 0.00 0.00 0.00 63 1014.8
20260904033904 85 137 3.0 8.0 0.00 0.00 0.00 62 1014.8
20260904033804 86 139 3.0 8.0 0.00 0.00 0.00 62 1014.7
20260904033705 86 137 3.0 8.0 0.00 0.00 0.00 62 1014.8
20260904033505 86 140 4.0 10.0 0.00 0.00 0.00 62 1014.7
20260904033405 86 138 4.0 10.0 0.00 0.00 0.00 62 1014.7
20260904033305 86 140 4.0 10.0 0.00 0.00 0.00 62 1014.7
20260904033205 86 137 4.0 10.0 0.00 0.00 0.00 62 1014.7
20260904033104 86 135 4.0 10.0 0.00 0.00 0.00 62 1014.8
20260904033004 86 138 4.0 10.0 0.00 0.00 0.00 62 1014.7
20260904032904 86 138 4.0 10.0 0.00 0.00 0.00 62 1014.7
20260904032804 86 137 4.0 10.0 0.00 0.00 0.00 62 1014.7
20260904032704 86 138 4.0 10.0 0.00 0.00 0.00 62 1014.7
20260904032604 86 138 4.0 10.0 0.00 0.00 0.00 62 1014.6
20260904032504 86 135 4.0 9.0 0.00 0.00 0.00 62 1014.7
20260904032404 86 139 3.0 11.0 0.00 0.00 0.00 61 1014.7
20260904032306 86 138 3.0 11.0 0.00 0.00 0.00 61 1014.7
20260904032205 86 137 3.0 11.0 0.00 0.00 0.00 61 1014.7
20260904032104 86 138 3.0 11.0 0.00 0.00 0.00 61 1014.6
20260904032004 86 133 3.0 11.0 0.00 0.00 0.00 61 1014.6
20260904031904 86 133 3.0 11.0 0.00 0.00 0.00 61 1014.6
20260904031804 86 135 3.0 11.0 0.00 0.00 0.00 61 1014.6
20260904031704 86 136 4.0 11.0 0.00 0.00 0.00 61 1014.6
20260904031604 86 136 4.0 11.0 0.00 0.00 0.00 61 1014.6
20260904031504 86 135 3.0 11.0 0.00 0.00 0.00 61 1014.5
20260904031404 86 132 4.0 10.0 0.00 0.00 0.00 61 1014.5
20260904031304 86 132 4.0 10.0 0.00 0.00 0.00 61 1014.5
20260904031204 87 133 4.0 10.0 0.00 0.00 0.00 61 1014.4
20260904031105 87 134 4.0 10.0 0.00 0.00 0.00 61 1014.5
20260904031005 87 135 4.0 10.0 0.00 0.00 0.00 60 1014.4
20260904030805 87 134 4.0 10.0 0.00 0.00 0.00 60 1014.4
20260904030605 87 135 4.0 10.0 0.00 0.00 0.00 60 1014.3
20260904030505 87 135 4.0 10.0 0.00 0.00 0.00 60 1014.3
20260904030405 87 135 4.0 9.0 0.00 0.00 0.00 60 1014.3
20260904030305 87 133 4.0 9.0 0.00 0.00 0.00 60 1014.3
20260904030105 87 132 4.0 9.0 0.00 0.00 0.00 60 1014.3
20260904030005 87 133 4.0 9.0 0.00 0.00 0.00 60 1014.3
20260904025905 87 132 3.0 9.0 0.00 0.00 0.00 60 1014.3
20260904025805 87 131 3.0 8.0 0.00 0.00 0.00 60 1014.3
20260904025705 87 129 3.0 8.0 0.00 0.00 0.00 59 1014.4
20260904025605 87 131 3.0 8.0 0.00 0.00 0.00 59 1014.3
20260904025504 87 132 3.0 8.0 0.00 0.00 0.00 59 1014.4
20260904025306 87 136 3.0 8.0 0.00 0.00 0.00 59 1014.3
20260904025204 87 137 3.0 8.0 0.00 0.00 0.00 59 1014.3
20260904025104 87 136 3.0 8.0 0.00 0.00 0.00 59 1014.3
20260904025005 87 138 3.0 8.0 0.00 0.00 0.00 59 1014.3
20260904024805 87 139 3.0 9.0 0.00 0.00 0.00 59 1014.2
20260904024705 87 140 3.0 9.0 0.00 0.00 0.00 59 1014.2
20260904024505 88 138 3.0 9.0 0.00 0.00 0.00 59 1014.2
20260904024404 88 135 3.0 9.0 0.00 0.00 0.00 59 1014.3
20260904024204 88 135 3.0 9.0 0.00 0.00 0.00 58 1014.2
20260904024104 88 137 3.0 9.0 0.00 0.00 0.00 58 1014.2
20260904024004 88 135 3.0 9.0 0.00 0.00 0.00 58 1014.2
20260904023904 88 135 3.0 9.0 0.00 0.00 0.00 58 1014.1
20260904023704 88 134 3.0 9.0 0.00 0.00 0.00 58 1014.1
20260904023604 88 133 4.0 9.0 0.00 0.00 0.00 58 1014.0
20260904023504 88 135 4.0 9.0 0.00 0.00 0.00 58 1014.0
20260904023404 88 135 4.0 9.0 0.00 0.00 0.00 58 1014.0
20260904023304 88 136 4.0 9.0 0.00 0.00 0.00 58 1014.0
20260904023204 88 137 4.0 9.0 0.00 0.00 0.00 58 1014.0
20260904023105 88 137 4.0 9.0 0.00 0.00 0.00 58 1014.0
20260904023005 88 135 4.0 9.0 0.00 0.00 0.00 57 1014.0
20260904022905 88 135 4.0 9.0 0.00 0.00 0.00 57 1013.9
20260904022804 88 138 4.0 9.0 0.00 0.00 0.00 57 1014.0
20260904022704 88 138 4.0 9.0 0.00 0.00 0.00 57 1013.9
20260904022604 88 138 4.0 9.0 0.00 0.00 0.00 57 1014.0
20260904022504 88 135 4.0 9.0 0.00 0.00 0.00 57 1013.9
20260904022405 88 135 4.0 9.0 0.00 0.00 0.00 57 1013.9
20260904022306 88 133 4.0 9.0 0.00 0.00 0.00 57 1013.9
20260904022204 88 132 3.0 9.0 0.00 0.00 0.00 57 1013.9
20260904022104 88 131 3.0 9.0 0.00 0.00 0.00 57 1013.8
20260904022004 88 133 3.0 9.0 0.00 0.00 0.00 57 1013.9
20260904021904 88 133 3.0 9.0 0.00 0.00 0.00 57 1013.9
20260904021804 88 130 3.0 8.0 0.00 0.00 0.00 57 1013.9
20260904021604 89 131 3.0 9.0 0.00 0.00 0.00 56 1013.9
20260904021504 89 133 3.0 9.0 0.00 0.00 0.00 56 1013.9
20260904021404 89 136 3.0 9.0 0.00 0.00 0.00 56 1013.9
20260904021304 89 137 3.0 9.0 0.00 0.00 0.00 56 1013.9
20260904021204 89 139 4.0 9.0 0.00 0.00 0.00 56 1013.9
20260904021104 89 137 4.0 10.0 0.00 0.00 0.00 56 1013.9
20260904020904 89 137 4.0 10.0 0.00 0.00 0.00 55 1013.8
20260904020805 89 138 4.0 10.0 0.00 0.00 0.00 55 1013.8
20260904020705 89 137 4.0 10.0 0.00 0.00 0.00 55 1013.8
20260904020604 89 138 4.0 10.0 0.00 0.00 0.00 55 1013.8
20260904020504 89 138 3.0 10.0 0.00 0.00 0.00 55 1013.8
20260904020405 89 137 4.0 10.0 0.00 0.00 0.00 54 1013.7
20260904020304 89 137 3.0 10.0 0.00 0.00 0.00 54 1013.7
20260904020204 89 137 3.0 10.0 0.00 0.00 0.00 54 1013.8
20260904020104 89 138 3.0 10.0 0.00 0.00 0.00 54 1013.8
20260904020004 89 137 3.0 10.0 0.00 0.00 0.00 54 1013.8
20260904015904 89 137 3.0 10.0 0.00 0.00 0.00 53 1013.8
20260904015804 89 138 3.0 9.0 0.00 0.00 0.00 53 1013.7
20260904015704 89 137 3.0 9.0 0.00 0.00 0.00 53 1013.7
20260904015504 89 136 3.0 9.0 0.00 0.00 0.00 52 1013.7
20260904015306 90 136 2.0 9.0 0.00 0.00 0.00 52 1013.7
20260904015004 90 133 2.0 7.0 0.00 0.00 0.00 52 1013.6
20260904014905 90 132 2.0 7.0 0.00 0.00 0.00 52 1013.6
20260904014805 90 129 2.0 4.0 0.00 0.00 0.00 51 1013.6
20260904014705 90 130 2.0 4.0 0.00 0.00 0.00 51 1013.6
20260904014605 90 129 2.0 4.0 0.00 0.00 0.00 51 1013.6
20260904014505 90 132 2.0 4.0 0.00 0.00 0.00 51 1013.5
20260904014405 90 132 2.0 4.0 0.00 0.00 0.00 51 1013.5
20260904014305 90 130 2.0 4.0 0.00 0.00 0.00 51 1013.5
20260904014205 90 130 2.0 4.0 0.00 0.00 0.00 50 1013.4
20260904014105 90 131 2.0 4.0 0.00 0.00 0.00 50 1013.4
20260904014005 90 132 2.0 4.0 0.00 0.00 0.00 50 1013.4
20260904013904 90 131 2.0 4.0 0.00 0.00 0.00 50 1013.4
20260904013805 90 130 2.0 4.0 0.00 0.00 0.00 50 1013.4
20260904013705 90 130 2.0 4.0 0.00 0.00 0.00 50 1013.4
20260904013604 90 129 2.0 4.0 0.00 0.00 0.00 50 1013.3
20260904013504 90 125 2.0 4.0 0.00 0.00 0.00 50 1013.4
20260904013404 90 124 2.0 4.0 0.00 0.00 0.00 49 1013.3
20260904013304 90 124 2.0 4.0 0.00 0.00 0.00 49 1013.2
20260904013205 90 124 2.0 4.0 0.00 0.00 0.00 49 1013.3
20260904013105 90 123 2.0 4.0 0.00 0.00 0.00 49 1013.3
20260904012905 91 124 2.0 4.0 0.00 0.00 0.00 49 1013.2
20260904012804 91 124 2.0 4.0 0.00 0.00 0.00 49 1013.2
20260904012705 91 124 2.0 4.0 0.00 0.00 0.00 49 1013.2
20260904012604 91 124 2.0 4.0 0.00 0.00 0.00 48 1013.2
20260904012504 91 124 2.0 8.0 0.00 0.00 0.00 48 1013.2
20260904012306 91 129 2.0 8.0 0.00 0.00 0.00 48 1013.1
20260904012205 91 129 2.0 8.0 0.00 0.00 0.00 48 1013.1
20260904012104 91 131 2.0 8.0 0.00 0.00 0.00 48 1013.1
20260904012004 91 131 2.0 8.0 0.00 0.00 0.00 48 1013.1
20260904011904 91 130 2.0 8.0 0.00 0.00 0.00 48 1013.1
20260904011804 91 130 2.0 8.0 0.00 0.00 0.00 48 1013.1
20260904011704 91 130 2.0 8.0 0.00 0.00 0.00 47 1013.0
20260904011604 91 131 2.0 8.0 0.00 0.00 0.00 47 1013.1
20260904011504 91 133 2.0 6.0 0.00 0.00 0.00 47 1013.1
20260904011404 92 133 2.0 6.0 0.00 0.00 0.00 47 1013.0
20260904011304 92 129 2.0 6.0 0.00 0.00 0.00 47 1013.0
20260904011204 92 128 2.0 8.0 0.00 0.00 0.00 47 1013.0
20260904011004 92 128 2.0 8.0 0.00 0.00 0.00 47 1013.0
20260904010904 92 132 2.0 8.0 0.00 0.00 0.00 47 1013.0
20260904010804 92 132 2.0 8.0 0.00 0.00 0.00 47 1013.0
20260904010704 92 133 2.0 8.0 0.00 0.00 0.00 47 1013.0
20260904010604 92 133 2.0 8.0 0.00 0.00 0.00 46 1013.0
20260904010504 92 135 2.0 8.0 0.00 0.00 0.00 46 1013.0
20260904010404 92 135 3.0 8.0 0.00 0.00 0.00 46 1013.0
20260904010304 92 134 2.0 8.0 0.00 0.00 0.00 46 1013.0
20260904010204 92 137 2.0 6.0 0.00 0.00 0.00 46 1013.0
20260904010104 92 136 2.0 6.0 0.00 0.00 0.00 46 1013.0
20260904010005 92 135 2.0 6.0 0.00 0.00 0.00 46 1013.0
20260904005905 92 135 3.0 6.0 0.00 0.00 0.00 46 1013.0
20260904005805 92 138 2.0 6.0 0.00 0.00 0.00 46 1012.9
20260904005704 92 136 3.0 6.0 0.00 0.00 0.00 46 1013.0
20260904005605 92 137 3.0 6.0 0.00 0.00 0.00 46 1013.0
20260904005505 93 136 3.0 7.0 0.00 0.00 0.00 45 1012.9
20260904005405 93 138 3.0 7.0 0.00 0.00 0.00 45 1012.9
20260904005306 93 140 3.0 7.0 0.00 0.00 0.00 45 1013.0
20260904005105 93 141 3.0 7.0 0.00 0.00 0.00 45 1012.8
20260904005005 93 142 3.0 7.0 0.00 0.00 0.00 45 1012.9
20260904004905 93 139 3.0 7.0 0.00 0.00 0.00 45 1012.9
20260904004804 93 137 3.0 7.0 0.00 0.00 0.00 45 1012.8
20260904004705 93 137 3.0 7.0 0.00 0.00 0.00 45 1012.8
20260904004604 93 137 3.0 7.0 0.00 0.00 0.00 45 1012.9
20260904004505 93 137 3.0 7.0 0.00 0.00 0.00 45 1012.8
20260904004415 93 135 3.0 7.0 0.00 0.00 0.00 45 1012.8
20260904004204 93 133 3.0 7.0 0.00 0.00 0.00 45 1012.8
20260904004104 93 134 3.0 7.0 0.00 0.00 0.00 44 1012.8
20260904004004 94 133 3.0 7.0 0.00 0.00 0.00 44 1012.7
20260904003904 94 136 3.0 11.0 0.00 0.00 0.00 44 1012.8
20260904003804 94 137 3.0 11.0 0.00 0.00 0.00 44 1012.7
20260904003704 94 139 3.0 11.0 0.00 0.00 0.00 44 1012.7
20260904003604 94 139 3.0 11.0 0.00 0.00 0.00 44 1012.7
20260904003405 94 140 3.0 11.0 0.00 0.00 0.00 44 1012.6
20260904003205 94 147 3.0 11.0 0.00 0.00 0.00 44 1012.6
20260904003105 94 146 4.0 11.0 0.00 0.00 0.00 44 1012.6
20260904003005 94 149 4.0 11.0 0.00 0.00 0.00 44 1012.6
20260904002904 94 153 4.0 9.0 0.00 0.00 0.00 44 1012.6
20260904002804 94 155 4.0 9.0 0.00 0.00 0.00 43 1012.6
20260904002704 94 156 4.0 9.0 0.00 0.00 0.00 43 1012.6
20260904002504 94 157 3.0 9.0 0.00 0.00 0.00 43 1012.5
20260904002404 94 158 3.0 9.0 0.00 0.00 0.00 43 1012.6
20260904002306 94 159 3.0 9.0 0.00 0.00 0.00 43 1012.6
20260904001904 95 148 2.0 6.0 0.00 0.00 0.00 43 1012.6
20260904001804 95 145 2.0 5.0 0.00 0.00 0.00 43 1012.6
20260904001704 95 145 2.0 5.0 0.00 0.00 0.00 43 1012.6
20260904001604 95 144 2.0 5.0 0.00 0.00 0.00 43 1012.6
20260904001404 95 149 2.0 8.0 0.00 0.00 0.00 43 1012.6
20260904001304 95 148 2.0 8.0 0.00 0.00 0.00 42 1012.6
20260904001204 95 146 2.0 8.0 0.00 0.00 0.00 43 1012.6
20260904001104 95 144 3.0 8.0 0.00 0.00 0.00 42 1012.5
20260904000904 95 145 3.0 8.0 0.00 0.00 0.00 42 1012.6
20260904000804 95 146 3.0 10.0 0.00 0.00 0.00 42 1012.6
20260904000704 96 147 3.0 10.0 0.00 0.00 0.00 42 1012.6
20260904000604 95 148 3.0 10.0 0.00 0.00 0.00 42 1012.6
20260904000504 96 144 3.0 10.0 0.00 0.00 0.00 42 1012.6
20260904000304 96 144 3.0 10.0 0.00 0.00 0.00 41 1012.6
20260904000004 96 149 3.0 11.0 0.00 0.00 0.00 41 1012.6
20260903235904 96 148 3.0 11.0 0.00 0.00 0.00 41 1012.6
20260903235805 96 146 3.0 11.0 0.00 0.00 0.00 41 1012.6
20260903235705 96 142 3.0 11.0 0.00 0.00 0.00 41 1012.5
20260903235305 96 144 3.0 11.0 0.00 0.00 0.00 40 1012.5
20260903235205 96 144 3.0 11.0 0.00 0.00 0.00 40 1012.5
20260903235105 96 147 3.0 11.0 0.00 0.00 0.00 40 1012.5
20260903235005 96 146 4.0 11.0 0.00 0.00 0.00 40 1012.5
20260903234905 96 153 4.0 11.0 0.00 0.00 0.00 40 1012.5
20260903234805 96 154 4.0 11.0 0.00 0.00 0.00 40 1012.5
20260903234705 96 157 4.0 11.0 0.00 0.00 0.00 40 1012.5
20260903234605 96 161 4.0 11.0 0.00 0.00 0.00 40 1012.5
20260903234404 96 157 4.0 10.0 0.00 0.00 0.00 40 1012.5
20260903234005 97 150 4.0 10.0 0.00 0.00 0.00 39 1012.4
20260903233904 97 145 4.0 11.0 0.00 0.00 0.00 39 1012.5
20260903233805 97 144 4.0 11.0 0.00 0.00 0.00 39 1012.5
20260903233704 97 146 4.0 11.0 0.00 0.00 0.00 39 1012.5
20260903233604 97 145 4.0 11.0 0.00 0.00 0.00 39 1012.5
20260903233504 97 145 4.0 11.0 0.00 0.00 0.00 39 1012.5
20260903233305 97 143 4.0 11.0 0.00 0.00 0.00 39 1012.5
20260903233205 97 147 4.0 11.0 0.00 0.00 0.00 39 1012.5
20260903233104 97 146 4.0 11.0 0.00 0.00 0.00 39 1012.5
20260903233005 97 145 4.0 11.0 0.00 0.00 0.00 39 1012.6
20260903232904 97 145 4.0 8.0 0.00 0.00 0.00 39 1012.5
20260903232804 97 147 4.0 10.0 0.00 0.00 0.00 39 1012.5
20260903232704 97 146 4.0 10.0 0.00 0.00 0.00 39 1012.6
20260903232604 97 142 4.0 10.0 0.00 0.00 0.00 39 1012.5
20260903232404 97 145 4.0 10.0 0.00 0.00 0.00 39 1012.4
20260903232306 97 144 4.0 10.0 0.00 0.00 0.00 39 1012.5
20260903232104 98 141 4.0 10.0 0.00 0.00 0.00 39 1012.5
20260903232004 98 140 4.0 10.0 0.00 0.00 0.00 39 1012.5
20260903231904 98 145 4.0 10.0 0.00 0.00 0.00 39 1012.4
20260903231804 98 141 4.0 10.0 0.00 0.00 0.00 39 1012.4
20260903231604 98 144 4.0 9.0 0.00 0.00 0.00 39 1012.5
20260903231504 98 142 3.0 9.0 0.00 0.00 0.00 38 1012.5
20260903231304 98 146 3.0 9.0 0.00 0.00 0.00 38 1012.5
20260903231204 98 147 3.0 9.0 0.00 0.00 0.00 38 1012.5
20260903231104 98 152 3.0 9.0 0.00 0.00 0.00 38 1012.5
20260903231004 98 157 3.0 9.0 0.00 0.00 0.00 39 1012.6
20260903230704 98 153 3.0 9.0 0.00 0.00 0.00 39 1012.5
20260903230604 98 154 3.0 9.0 0.00 0.00 0.00 39 1012.5
20260903230504 98 153 3.0 9.0 0.00 0.00 0.00 39 1012.6
20260903230404 98 149 4.0 9.0 0.00 0.00 0.00 39 1012.5
20260903230304 98 150 4.0 9.0 0.00 0.00 0.00 38 1012.5
20260903230204 98 151 4.0 9.0 0.00 0.00 0.00 38 1012.4
20260903230104 98 147 4.0 9.0 0.00 0.00 0.00 38 1012.5
20260903230004 98 146 3.0 9.0 0.00 0.00 0.00 38 1012.4
20260903225904 98 142 3.0 9.0 0.00 0.00 0.00 38 1012.4
20260903225804 98 147 4.0 11.0 0.00 0.00 0.00 38 1012.4
20260903225704 98 149 4.0 11.0 0.00 0.00 0.00 38 1012.4
20260903225604 98 154 4.0 11.0 0.00 0.00 0.00 38 1012.4
20260903225504 98 154 4.0 11.0 0.00 0.00 0.00 38 1012.4
20260903225306 98 158 4.0 11.0 0.00 0.00 0.00 38 1012.4
20260903225204 98 157 4.0 11.0 0.00 0.00 0.00 38 1012.4
20260903225104 98 160 4.0 11.0 0.00 0.00 0.00 38 1012.3
20260903225004 98 160 4.0 11.0 0.00 0.00 0.00 38 1012.3
20260903224904 98 159 4.0 11.0 0.00 0.00 0.00 37 1012.4
20260903224804 98 160 4.0 13.0 0.00 0.00 0.00 37 1012.3
20260903224704 98 159 4.0 13.0 0.00 0.00 0.00 37 1012.3
20260903224604 98 154 4.0 13.0 0.00 0.00 0.00 37 1012.3
20260903224504 98 155 4.0 13.0 0.00 0.00 0.00 37 1012.2
20260903224404 98 154 4.0 13.0 0.00 0.00 0.00 36 1012.3
20260903224304 98 153 4.0 13.0 0.00 0.00 0.00 36 1012.3
20260903224204 98 151 4.0 13.0 0.00 0.00 0.00 37 1012.3
20260903224104 99 146 4.0 13.0 0.00 0.00 0.00 37 1012.3
20260903224004 99 143 4.0 13.0 0.00 0.00 0.00 37 1012.3
20260903223904 99 141 4.0 13.0 0.00 0.00 0.00 37 1012.3
20260903223704 99 136 4.0 9.0 0.00 0.00 0.00 37 1012.3
20260903223604 99 134 4.0 8.0 0.00 0.00 0.00 37 1012.2
20260903223404 98 129 4.0 7.0 0.00 0.00 0.00 37 1012.2
20260903223304 98 128 4.0 7.0 0.00 0.00 0.00 37 1012.2
20260903223204 98 129 4.0 7.0 0.00 0.00 0.00 36 1012.2
20260903223104 98 133 4.0 7.0 0.00 0.00 0.00 36 1012.3
20260903223004 99 134 4.0 11.0 0.00 0.00 0.00 37 1012.3
20260903222904 99 134 4.0 11.0 0.00 0.00 0.00 36 1012.3
20260903222704 99 133 4.0 11.0 0.00 0.00 0.00 36 1012.2
20260903222605 99 131 4.0 11.0 0.00 0.00 0.00 36 1012.2
20260903222505 99 132 4.0 11.0 0.00 0.00 0.00 36 1012.3
20260903222404 99 131 5.0 11.0 0.00 0.00 0.00 36 1012.3
20260903222305 98 131 5.0 11.0 0.00 0.00 0.00 36 1012.3
20260903222205 98 131 4.0 11.0 0.00 0.00 0.00 36 1012.3
20260903222005 99 137 5.0 11.0 0.00 0.00 0.00 37 1012.3
20260903221905 99 143 5.0 11.0 0.00 0.00 0.00 37 1012.2
20260903221805 99 145 5.0 12.0 0.00 0.00 0.00 36 1012.2
20260903221705 99 149 5.0 12.0 0.00 0.00 0.00 36 1012.3
20260903221504 99 159 5.0 12.0 0.00 0.00 0.00 36 1012.3
20260903221304 99 163 5.0 12.0 0.00 0.00 0.00 37 1012.3
20260903221204 99 164 5.0 12.0 0.00 0.00 0.00 36 1012.3
20260903221104 99 161 5.0 12.0 0.00 0.00 0.00 37 1012.3
20260903221004 99 153 4.0 12.0 0.00 0.00 0.00 37 1012.3
20260903220904 99 148 4.0 12.0 0.00 0.00 0.00 37 1012.3
20260903220704 99 146 4.0 11.0 0.00 0.00 0.00 36 1012.4
20260903220604 99 140 4.0 11.0 0.00 0.00 0.00 36 1012.4
20260903220504 99 133 4.0 11.0 0.00 0.00 0.00 37 1012.4
20260903220305 99 129 4.0 11.0 0.00 0.00 0.00 37 1012.3
20260903220205 99 129 4.0 11.0 0.00 0.00 0.00 37 1012.3
20260903220105 99 129 4.0 11.0 0.00 0.00 0.00 37 1012.4
20260903220005 99 130 4.0 11.0 0.00 0.00 0.00 37 1012.4
20260903215905 99 130 4.0 11.0 0.00 0.00 0.00 37 1012.4
20260903215805 99 131 4.0 10.0 0.00 0.00 0.00 37 1012.4
20260903215705 99 140 5.0 13.0 0.00 0.00 0.00 37 1012.4
20260903215504 99 151 5.0 13.0 0.00 0.00 0.00 37 1012.4
20260903215404 99 155 5.0 13.0 0.00 0.00 0.00 37 1012.4
20260903215306 99 159 5.0 13.0 0.00 0.00 0.00 37 1012.5
20260903215104 99 164 5.0 13.0 0.00 0.00 0.00 37 1012.5
20260903215004 99 168 5.0 13.0 0.00 0.00 0.00 37 1012.6
20260903214904 99 168 5.0 13.0 0.00 0.00 0.00 37 1012.6
20260903214804 99 168 5.0 13.0 0.00 0.00 0.00 37 1012.6
20260903214604 99 167 5.0 13.0 0.00 0.00 0.00 37 1012.5
20260903214504 100 170 5.0 13.0 0.00 0.00 0.00 37 1012.6
20260903214404 99 172 5.0 14.0 0.00 0.00 0.00 37 1012.6
20260903214305 99 168 5.0 14.0 0.00 0.00 0.00 37 1012.6
20260903214204 99 169 5.0 14.0 0.00 0.00 0.00 37 1012.7
20260903214105 99 166 5.0 14.0 0.00 0.00 0.00 38 1012.7
20260903214005 99 163 5.0 14.0 0.00 0.00 0.00 38 1012.7
20260903213905 99 163 5.0 14.0 0.00 0.00 0.00 38 1012.7
20260903213805 99 164 4.0 14.0 0.00 0.00 0.00 37 1012.7
20260903213705 99 152 4.0 14.0 0.00 0.00 0.00 37 1012.6
20260903213605 99 152 4.0 14.0 0.00 0.00 0.00 38 1012.7
20260903213505 99 149 4.0 14.0 0.00 0.00 0.00 37 1012.6
20260903213305 99 140 4.0 13.0 0.00 0.00 0.00 38 1012.7
20260903213205 99 137 4.0 13.0 0.00 0.00 0.00 38 1012.7
20260903213105 99 138 4.0 13.0 0.00 0.00 0.00 38 1012.7
20260903213005 99 141 4.0 13.0 0.00 0.00 0.00 38 1012.7
20260903212905 99 144 4.0 13.0 0.00 0.00 0.00 37 1012.7
20260903212804 99 139 4.0 9.0 0.00 0.00 0.00 37 1012.7
20260903212704 99 138 4.0 9.0 0.00 0.00 0.00 38 1012.8
20260903212504 99 135 4.0 9.0 0.00 0.00 0.00 38 1012.8
20260903212404 99 136 4.0 9.0 0.00 0.00 0.00 37 1012.8
20260903212306 99 137 4.0 9.0 0.00 0.00 0.00 38 1012.8
20260903212204 99 141 4.0 9.0 0.00 0.00 0.00 38 1012.8
20260903212004 99 135 4.0 9.0 0.00 0.00 0.00 38 1012.8
20260903211904 99 132 4.0 9.0 0.00 0.00 0.00 37 1012.8
20260903211704 99 131 4.0 9.0 0.00 0.00 0.00 38 1012.9
20260903211505 99 131 4.0 9.0 0.00 0.00 0.00 39 1012.8
20260903211405 99 133 4.0 9.0 0.00 0.00 0.00 39 1012.8
20260903211205 99 131 4.0 9.0 0.00 0.00 0.00 39 1012.9
20260903211105 99 132 4.0 9.0 0.00 0.00 0.00 38 1012.9
20260903211005 99 135 4.0 9.0 0.00 0.00 0.00 38 1012.9
20260903210905 99 139 4.0 8.0 0.00 0.00 0.00 38 1012.9
20260903210805 99 137 4.0 8.0 0.00 0.00 0.00 38 1013.0
20260903210705 99 139 4.0 8.0 0.00 0.00 0.00 38 1012.9
20260903210605 99 141 4.0 8.0 0.00 0.00 0.00 39 1012.9
20260903210505 99 140 4.0 8.0 0.00 0.00 0.00 38 1012.9
20260903210304 99 137 4.0 8.0 0.00 0.00 0.00 39 1013.0
20260903210204 99 140 5.0 8.0 0.00 0.00 0.00 39 1013.0
20260903210104 99 145 5.0 11.0 0.00 0.00 0.00 39 1013.0
20260903210004 99 143 5.0 11.0 0.00 0.00 0.00 39 1013.0
20260903205904 99 141 4.0 11.0 0.00 0.00 0.00 38 1012.9
20260903205804 99 141 5.0 11.0 0.00 0.00 0.00 38 1013.0
20260903205704 99 140 5.0 11.0 0.00 0.00 0.00 38 1013.0
20260903205604 99 137 5.0 11.0 0.00 0.00 0.00 38 1013.0
20260903205504 99 136 4.0 11.0 0.00 0.00 0.00 39 1013.1
20260903205404 99 137 5.0 11.0 0.00 0.00 0.00 39 1013.0
20260903205204 99 137 4.0 11.0 0.00 0.00 0.00 40 1013.0
20260903205104 99 133 4.0 11.0 0.00 0.00 0.00 40 1013.0
20260903204904 99 131 4.0 11.0 0.00 0.00 0.00 40 1013.1
20260903204804 99 131 4.0 11.0 0.00 0.00 0.00 40 1013.1
20260903204704 99 134 4.0 11.0 0.00 0.00 0.00 40 1013.1
20260903204504 99 145 4.0 12.0 0.00 0.00 0.00 40 1013.1
20260903204305 99 137 4.0 12.0 0.00 0.00 0.00 41 1013.1